| time (UTC) | temp C | wind direction | speed KPH | gust KPH | rain 1hr cm | rain 24hr cm | rain mn cm | humidity % | barometer mb |
| 20260503220543 | 14 | 227 | 16.1 | 27.4 | 0.00 | 0.00 | 0.00 | 1 | 1011.9 |
| 20260503220443 | 14 | 202 | 16.1 | 25.7 | 0.00 | 0.00 | 0.00 | 1 | 1011.9 |
| 20260503220343 | 14 | 209 | 16.1 | 25.7 | 0.00 | 0.00 | 0.00 | 1 | 1011.9 |
| 20260503220242 | 14 | 237 | 17.7 | 25.7 | 0.00 | 0.00 | 0.00 | 1 | 1011.9 |
| 20260503220141 | 14 | 238 | 17.7 | 25.7 | 0.00 | 0.00 | 0.00 | 1 | 1011.9 |
| 20260503220041 | 14 | 218 | 16.1 | 25.7 | 0.00 | 0.00 | 0.00 | 1 | 1011.9 |
| 20260503215941 | 14 | 280 | 16.1 | 25.7 | 0.00 | 0.00 | 0.00 | 1 | 1011.9 |
| 20260503215840 | 14 | 246 | 16.1 | 25.7 | 0.00 | 0.00 | 0.00 | 1 | 1011.9 |
| 20260503215741 | 14 | 235 | 16.1 | 25.7 | 0.00 | 0.00 | 0.00 | 1 | 1011.9 |
| 20260503215641 | 14 | 238 | 16.1 | 25.7 | 0.00 | 0.00 | 0.00 | 1 | 1011.9 |
| 20260503215541 | 14 | 247 | 16.1 | 25.7 | 0.00 | 0.00 | 0.00 | 1 | 1011.9 |
| 20260503215441 | 14 | 242 | 14.5 | 27.4 | 0.00 | 0.00 | 0.00 | 1 | 1011.9 |
| 20260503215341 | 14 | 221 | 14.5 | 27.4 | 0.00 | 0.00 | 0.00 | 1 | 1011.9 |
| 20260503215241 | 14 | 219 | 14.5 | 27.4 | 0.00 | 0.00 | 0.00 | 1 | 1011.9 |
| 20260503215141 | 14 | 240 | 14.5 | 27.4 | 0.00 | 0.00 | 0.00 | 1 | 1011.9 |
| 20260503215041 | 14 | 231 | 14.5 | 27.4 | 0.00 | 0.00 | 0.00 | 1 | 1011.9 |
| 20260503214935 | 14 | 256 | 14.5 | 27.4 | 0.00 | 0.00 | 0.00 | 1 | 1011.9 |
| 20260503214835 | 14 | 269 | 14.5 | 27.4 | 0.00 | 0.00 | 0.00 | 1 | 1011.9 |
| 20260503214735 | 14 | 220 | 14.5 | 27.4 | 0.00 | 0.00 | 0.00 | 1 | 1011.9 |
| 20260503214635 | 14 | 230 | 14.5 | 27.4 | 0.00 | 0.00 | 0.00 | 1 | 1011.9 |
| 20260503214535 | 14 | 224 | 12.9 | 27.4 | 0.00 | 0.00 | 0.00 | 1 | 1011.9 |
| 20260503214448 | 14 | 254 | 12.9 | 24.1 | 0.00 | 0.00 | 0.00 | 1 | 1011.9 |
| 20260503214339 | 15 | 241 | 12.9 | 24.1 | 0.00 | 0.00 | 0.00 | 1 | 1011.9 |
| 20260503214135 | 15 | 230 | 14.5 | 25.7 | 0.00 | 0.00 | 0.00 | 1 | 1011.9 |
| 20260503214035 | 15 | 252 | 12.9 | 25.7 | 0.00 | 0.00 | 0.00 | 1 | 1011.9 |
| 20260503213943 | 15 | 271 | 14.5 | 25.7 | 0.00 | 0.00 | 0.00 | 1 | 1011.9 |
| 20260503213939 | 15 | 225 | 14.5 | 25.7 | 0.00 | 0.00 | 0.00 | 1 | 1011.8 |
| 20260503213729 | 15 | 276 | 14.5 | 25.7 | 0.00 | 0.00 | 0.00 | 1 | 1011.8 |
| 20260503213629 | 14 | 299 | 14.5 | 25.7 | 0.00 | 0.00 | 0.00 | 1 | 1011.8 |
| 20260503213529 | 14 | 280 | 14.5 | 25.7 | 0.00 | 0.00 | 0.00 | 1 | 1011.9 |
| 20260503213429 | 14 | 223 | 16.1 | 25.7 | 0.00 | 0.00 | 0.00 | 1 | 1011.9 |
| 20260503213328 | 14 | 216 | 16.1 | 25.7 | 0.00 | 0.00 | 0.00 | 1 | 1011.9 |
| 20260503213229 | 14 | 256 | 14.5 | 24.1 | 0.00 | 0.00 | 0.00 | 1 | 1011.9 |
| 20260503213129 | 15 | 257 | 14.5 | 24.1 | 0.00 | 0.00 | 0.00 | 1 | 1011.9 |
| 20260503213029 | 15 | 244 | 12.9 | 24.1 | 0.00 | 0.00 | 0.00 | 4 | 1012.0 |
| 20260503212929 | 15 | 241 | 12.9 | 24.1 | 0.00 | 0.00 | 0.00 | 4 | 1012.0 |
| 20260503212829 | 15 | 229 | 12.9 | 24.1 | 0.00 | 0.00 | 0.00 | 1 | 1012.0 |
| 20260503212728 | 15 | 240 | 12.9 | 24.1 | 0.00 | 0.00 | 0.00 | 2 | 1011.9 |
| 20260503212629 | 15 | 235 | 12.9 | 24.1 | 0.00 | 0.00 | 0.00 | 4 | 1011.9 |
| 20260503212525 | 15 | 222 | 12.9 | 22.5 | 0.00 | 0.00 | 0.00 | 4 | 1011.9 |
| 20260503212425 | 15 | 277 | 12.9 | 22.5 | 0.00 | 0.00 | 0.00 | 6 | 1011.9 |
| 20260503212324 | 15 | 252 | 11.3 | 22.5 | 0.00 | 0.00 | 0.00 | 4 | 1011.9 |
| 20260503212224 | 15 | 277 | 11.3 | 19.3 | 0.00 | 0.00 | 0.00 | 6 | 1011.9 |
| 20260503212124 | 15 | 193 | 11.3 | 19.3 | 0.00 | 0.00 | 0.00 | 10 | 1011.9 |
| 20260503212025 | 15 | 242 | 11.3 | 19.3 | 0.00 | 0.00 | 0.00 | 13 | 1011.9 |
| 20260503211925 | 15 | 213 | 11.3 | 19.3 | 0.00 | 0.00 | 0.00 | 13 | 1012.0 |
| 20260503211825 | 15 | 228 | 11.3 | 17.7 | 0.00 | 0.00 | 0.00 | 11 | 1011.9 |
| 20260503211725 | 15 | 280 | 11.3 | 17.7 | 0.00 | 0.00 | 0.00 | 11 | 1012.0 |
| 20260503211624 | 15 | 232 | 11.3 | 17.7 | 0.00 | 0.00 | 0.00 | 8 | 1011.9 |
| 20260503211525 | 15 | 215 | 11.3 | 17.7 | 0.00 | 0.00 | 0.00 | 7 | 1011.9 |
| 20260503211425 | 15 | 219 | 9.7 | 17.7 | 0.00 | 0.00 | 0.00 | 7 | 1011.9 |
| 20260503211325 | 15 | 201 | 9.7 | 17.7 | 0.00 | 0.00 | 0.00 | 5 | 1011.9 |
| 20260503211225 | 15 | 199 | 11.3 | 17.7 | 0.00 | 0.00 | 0.00 | 5 | 1012.0 |
| 20260503211125 | 15 | 243 | 9.7 | 17.7 | 0.00 | 0.00 | 0.00 | 8 | 1012.0 |
| 20260503211024 | 15 | 219 | 11.3 | 17.7 | 0.00 | 0.00 | 0.00 | 9 | 1012.0 |
| 20260503210925 | 15 | 196 | 11.3 | 17.7 | 0.00 | 0.00 | 0.00 | 10 | 1012.0 |
| 20260503210824 | 15 | 207 | 11.3 | 17.7 | 0.00 | 0.00 | 0.00 | 10 | 1012.0 |
| 20260503210729 | 15 | 167 | 11.3 | 20.9 | 0.00 | 0.00 | 0.00 | 9 | 1012.0 |
| 20260503210725 | 15 | 223 | 11.3 | 20.9 | 0.00 | 0.00 | 0.00 | 13 | 1012.0 |
| 20260503210521 | 15 | 210 | 11.3 | 20.9 | 0.00 | 0.00 | 0.00 | 9 | 1012.0 |
| 20260503210421 | 15 | 271 | 11.3 | 20.9 | 0.00 | 0.00 | 0.00 | 8 | 1012.0 |
| 20260503210321 | 15 | 237 | 11.3 | 20.9 | 0.00 | 0.00 | 0.00 | 7 | 1012.0 |
| 20260503210229 | 15 | 196 | 11.3 | 24.1 | 0.00 | 0.00 | 0.00 | 4 | 1012.0 |
| 20260503210225 | 15 | 224 | 11.3 | 22.5 | 0.00 | 0.00 | 0.00 | 6 | 1012.0 |
| 20260503210021 | 15 | 221 | 11.3 | 24.1 | 0.00 | 0.00 | 0.00 | 1 | 1011.9 |
| 20260503205921 | 15 | 159 | 12.9 | 24.1 | 0.00 | 0.00 | 0.00 | 1 | 1012.0 |
| 20260503205821 | 15 | 217 | 12.9 | 24.1 | 0.00 | 0.00 | 0.00 | 1 | 1011.9 |
| 20260503205720 | 15 | 244 | 12.9 | 24.1 | 0.00 | 0.00 | 0.00 | 1 | 1011.9 |
| 20260503205621 | 15 | 140 | 12.9 | 24.1 | 0.00 | 0.00 | 0.00 | 1 | 1011.9 |
| 20260503205521 | 15 | 240 | 12.9 | 25.7 | 0.00 | 0.00 | 0.00 | 1 | 1011.9 |
| 20260503205429 | 15 | 234 | 12.9 | 25.7 | 0.00 | 0.00 | 0.00 | 1 | 1011.9 |
| 20260503205425 | 15 | 205 | 12.9 | 25.7 | 0.00 | 0.00 | 0.00 | 1 | 1011.9 |
| 20260503205220 | 15 | 236 | 12.9 | 25.7 | 0.00 | 0.00 | 0.00 | 1 | 1011.9 |
| 20260503205129 | 14 | 251 | 14.5 | 25.7 | 0.00 | 0.00 | 0.00 | 1 | 1011.9 |
| 20260503205125 | 14 | 222 | 14.5 | 25.7 | 0.00 | 0.00 | 0.00 | 1 | 1011.9 |
| 20260503204920 | 14 | 234 | 14.5 | 25.7 | 0.00 | 0.00 | 0.00 | 1 | 1011.9 |
| 20260503204820 | 14 | 276 | 14.5 | 25.7 | 0.00 | 0.00 | 0.00 | 1 | 1011.9 |
| 20260503204717 | 14 | 265 | 14.5 | 25.7 | 0.00 | 0.00 | 0.00 | 1 | 1011.9 |
| 20260503204625 | 14 | 226 | 14.5 | 24.1 | 0.00 | 0.00 | 0.00 | 1 | 1012.0 |
| 20260503204621 | 14 | 242 | 14.5 | 25.7 | 0.00 | 0.00 | 0.00 | 1 | 1011.9 |
| 20260503204417 | 14 | 200 | 14.5 | 24.1 | 0.00 | 0.00 | 0.00 | 1 | 1012.0 |
| 20260503204316 | 15 | 234 | 14.5 | 24.1 | 0.00 | 0.00 | 0.00 | 1 | 1012.0 |
| 20260503204216 | 15 | 234 | 14.5 | 24.1 | 0.00 | 0.00 | 0.00 | 1 | 1011.9 |
| 20260503204116 | 15 | 233 | 14.5 | 24.1 | 0.00 | 0.00 | 0.00 | 1 | 1011.9 |
| 20260503204017 | 15 | 284 | 12.9 | 24.1 | 0.00 | 0.00 | 0.00 | 1 | 1012.0 |
| 20260503203917 | 15 | 221 | 12.9 | 20.9 | 0.00 | 0.00 | 0.00 | 1 | 1011.9 |
| 20260503203817 | 14 | 234 | 12.9 | 20.9 | 0.00 | 0.00 | 0.00 | 1 | 1011.9 |
| 20260503203725 | 15 | 249 | 11.3 | 20.9 | 0.00 | 0.00 | 0.00 | 1 | 1012.0 |
| 20260503203721 | 15 | 294 | 12.9 | 20.9 | 0.00 | 0.00 | 0.00 | 1 | 1011.9 |
| 20260503203517 | 15 | 226 | 11.3 | 20.9 | 0.00 | 0.00 | 0.00 | 1 | 1011.9 |
| 20260503203417 | 15 | 211 | 11.3 | 20.9 | 0.00 | 0.00 | 0.00 | 1 | 1011.9 |
| 20260503203317 | 15 | 238 | 11.3 | 20.9 | 0.00 | 0.00 | 0.00 | 2 | 1012.0 |
| 20260503203217 | 15 | 217 | 11.3 | 20.9 | 0.00 | 0.00 | 0.00 | 5 | 1012.0 |
| 20260503203117 | 15 | 244 | 11.3 | 20.9 | 0.00 | 0.00 | 0.00 | 1 | 1012.0 |
| 20260503203017 | 15 | 171 | 11.3 | 20.9 | 0.00 | 0.00 | 0.00 | 1 | 1012.0 |
| 20260503202917 | 15 | 221 | 12.9 | 20.9 | 0.00 | 0.00 | 0.00 | 1 | 1012.0 |
| 20260503202813 | 15 | 256 | 11.3 | 22.5 | 0.00 | 0.00 | 0.00 | 1 | 1012.0 |
| 20260503202713 | 15 | 226 | 11.3 | 22.5 | 0.00 | 0.00 | 0.00 | 1 | 1011.9 |
| 20260503202612 | 15 | 224 | 11.3 | 22.5 | 0.00 | 0.00 | 0.00 | 1 | 1012.0 |
| 20260503202513 | 15 | 221 | 11.3 | 22.5 | 0.00 | 0.00 | 0.00 | 1 | 1011.9 |
| 20260503202413 | 15 | 254 | 11.3 | 22.5 | 0.00 | 0.00 | 0.00 | 1 | 1012.0 |
| 20260503202313 | 15 | 263 | 11.3 | 22.5 | 0.00 | 0.00 | 0.00 | 1 | 1012.0 |
| 20260503202213 | 15 | 219 | 9.7 | 22.5 | 0.00 | 0.00 | 0.00 | 1 | 1012.0 |
| 20260503202112 | 15 | 225 | 9.7 | 22.5 | 0.00 | 0.00 | 0.00 | 1 | 1012.0 |
| 20260503202013 | 15 | 265 | 9.7 | 22.5 | 0.00 | 0.00 | 0.00 | 1 | 1012.0 |
| 20260503201913 | 15 | 246 | 9.7 | 22.5 | 0.00 | 0.00 | 0.00 | 1 | 1012.0 |
| 20260503201813 | 15 | 202 | 9.7 | 20.9 | 0.00 | 0.00 | 0.00 | 1 | 1012.0 |
| 20260503201713 | 15 | 207 | 9.7 | 24.1 | 0.00 | 0.00 | 0.00 | 1 | 1012.0 |
| 20260503201611 | 15 | 186 | 11.3 | 24.1 | 0.00 | 0.00 | 0.00 | 1 | 1012.1 |
| 20260503201510 | 14 | 205 | 11.3 | 24.1 | 0.00 | 0.00 | 0.00 | 1 | 1012.1 |
| 20260503201411 | 14 | 220 | 11.3 | 24.1 | 0.00 | 0.00 | 0.00 | 1 | 1012.1 |
| 20260503201311 | 14 | 184 | 12.9 | 24.1 | 0.00 | 0.00 | 0.00 | 1 | 1012.1 |
| 20260503201211 | 14 | 215 | 12.9 | 24.1 | 0.00 | 0.00 | 0.00 | 1 | 1012.1 |
| 20260503201111 | 14 | 199 | 12.9 | 24.1 | 0.00 | 0.00 | 0.00 | 1 | 1012.1 |
| 20260503201011 | 14 | 230 | 12.9 | 24.1 | 0.00 | 0.00 | 0.00 | 1 | 1012.1 |
| 20260503200911 | 14 | 170 | 14.5 | 24.1 | 0.00 | 0.00 | 0.00 | 1 | 1012.1 |
| 20260503200810 | 14 | 215 | 14.5 | 24.1 | 0.00 | 0.00 | 0.00 | 1 | 1012.1 |
| 20260503200710 | 14 | 225 | 14.5 | 24.1 | 0.00 | 0.00 | 0.00 | 1 | 1012.1 |
| 20260503200611 | 14 | 219 | 14.5 | 24.1 | 0.00 | 0.00 | 0.00 | 1 | 1012.1 |
| 20260503200517 | 14 | 194 | 14.5 | 24.1 | 0.00 | 0.00 | 0.00 | 1 | 1012.1 |
| 20260503200513 | 14 | 226 | 14.5 | 24.1 | 0.00 | 0.00 | 0.00 | 1 | 1012.2 |
| 20260503200309 | 14 | 212 | 16.1 | 24.1 | 0.00 | 0.00 | 0.00 | 1 | 1012.1 |
| 20260503200208 | 14 | 188 | 16.1 | 24.1 | 0.00 | 0.00 | 0.00 | 1 | 1012.1 |
| 20260503200108 | 14 | 254 | 16.1 | 24.1 | 0.00 | 0.00 | 0.00 | 1 | 1012.1 |
| 20260503200008 | 14 | 252 | 16.1 | 24.1 | 0.00 | 0.00 | 0.00 | 1 | 1012.1 |
| 20260503195908 | 14 | 230 | 16.1 | 24.1 | 0.00 | 0.00 | 0.00 | 1 | 1012.1 |
| 20260503195808 | 14 | 234 | 16.1 | 24.1 | 0.00 | 0.00 | 0.00 | 1 | 1012.1 |
| 20260503195716 | 14 | 245 | 14.5 | 22.5 | 0.00 | 0.00 | 0.00 | 1 | 1012.1 |
| 20260503195711 | 14 | 248 | 14.5 | 24.1 | 0.00 | 0.00 | 0.00 | 1 | 1012.1 |
| 20260503195515 | 14 | 238 | 12.9 | 22.5 | 0.00 | 0.00 | 0.00 | 1 | 1012.1 |
| 20260503195511 | 14 | 224 | 12.9 | 22.5 | 0.00 | 0.00 | 0.00 | 1 | 1012.1 |
| 20260503195307 | 14 | 234 | 12.9 | 22.5 | 0.00 | 0.00 | 0.00 | 1 | 1012.1 |
| 20260503195207 | 14 | 287 | 12.9 | 24.1 | 0.00 | 0.00 | 0.00 | 1 | 1012.1 |
| 20260503195107 | 14 | 246 | 12.9 | 24.1 | 0.00 | 0.00 | 0.00 | 1 | 1012.2 |
| 20260503195006 | 14 | 200 | 12.9 | 24.1 | 0.00 | 0.00 | 0.00 | 1 | 1012.1 |
| 20260503194906 | 14 | 263 | 12.9 | 24.1 | 0.00 | 0.00 | 0.00 | 1 | 1012.1 |
| 20260503194806 | 14 | 215 | 12.9 | 24.1 | 0.00 | 0.00 | 0.00 | 1 | 1012.1 |
| 20260503194701 | 14 | 199 | 12.9 | 24.1 | 0.00 | 0.00 | 0.00 | 1 | 1012.1 |
| 20260503194609 | 14 | 225 | 12.9 | 24.1 | 0.00 | 0.00 | 0.00 | 1 | 1012.2 |
| 20260503194605 | 14 | 193 | 12.9 | 24.1 | 0.00 | 0.00 | 0.00 | 1 | 1012.2 |
| 20260503194401 | 14 | 283 | 12.9 | 24.1 | 0.00 | 0.00 | 0.00 | 1 | 1012.2 |
| 20260503194300 | 14 | 229 | 12.9 | 24.1 | 0.00 | 0.00 | 0.00 | 1 | 1012.2 |
| 20260503194155 | 14 | 214 | 11.3 | 20.9 | 0.00 | 0.00 | 0.00 | 1 | 1012.3 |
| 20260503194055 | 14 | 225 | 11.3 | 20.9 | 0.00 | 0.00 | 0.00 | 1 | 1012.2 |
| 20260503193953 | 14 | 258 | 11.3 | 20.9 | 0.00 | 0.00 | 0.00 | 1 | 1012.2 |
| 20260503193853 | 14 | 215 | 11.3 | 20.9 | 0.00 | 0.00 | 0.00 | 1 | 1012.2 |
| 20260503193751 | 14 | 215 | 11.3 | 20.9 | 0.00 | 0.00 | 0.00 | 1 | 1012.2 |
| 20260503193645 | 14 | 202 | 11.3 | 20.9 | 0.00 | 0.00 | 0.00 | 1 | 1012.3 |
| 20260503193544 | 14 | 198 | 11.3 | 20.9 | 0.00 | 0.00 | 0.00 | 1 | 1012.2 |
| 20260503193444 | 14 | 190 | 11.3 | 20.9 | 0.00 | 0.00 | 0.00 | 1 | 1012.2 |
| 20260503193345 | 14 | 228 | 11.3 | 24.1 | 0.00 | 0.00 | 0.00 | 1 | 1012.2 |
| 20260503193244 | 14 | 259 | 11.3 | 24.1 | 0.00 | 0.00 | 0.00 | 1 | 1012.2 |
| 20260503193138 | 14 | 236 | 11.3 | 24.1 | 0.00 | 0.00 | 0.00 | 1 | 1012.2 |
| 20260503193048 | 14 | 215 | 11.3 | 24.1 | 0.00 | 0.00 | 0.00 | 1 | 1012.3 |
| 20260503193043 | 14 | 215 | 11.3 | 24.1 | 0.00 | 0.00 | 0.00 | 1 | 1012.2 |
| 20260503192846 | 14 | 159 | 11.3 | 24.1 | 0.00 | 0.00 | 0.00 | 1 | 1012.3 |
| 20260503192738 | 14 | 238 | 11.3 | 24.1 | 0.00 | 0.00 | 0.00 | 1 | 1012.3 |
| 20260503192632 | 14 | 236 | 11.3 | 24.1 | 0.00 | 0.00 | 0.00 | 1 | 1012.3 |
| 20260503192532 | 14 | 207 | 11.3 | 24.1 | 0.00 | 0.00 | 0.00 | 1 | 1012.3 |
| 20260503192440 | 14 | 190 | 11.3 | 22.5 | 0.00 | 0.00 | 0.00 | 1 | 1012.2 |
| 20260503192436 | 14 | 223 | 11.3 | 24.1 | 0.00 | 0.00 | 0.00 | 1 | 1012.2 |
| 20260503192232 | 14 | 212 | 11.3 | 22.5 | 0.00 | 0.00 | 0.00 | 1 | 1012.2 |
| 20260503192133 | 14 | 210 | 12.9 | 22.5 | 0.00 | 0.00 | 0.00 | 1 | 1012.2 |
| 20260503192129 | 14 | 198 | 11.3 | 22.5 | 0.00 | 0.00 | 0.00 | 1 | 1012.2 |
| 20260503191924 | 14 | 219 | 12.9 | 22.5 | 0.00 | 0.00 | 0.00 | 1 | 1012.2 |
| 20260503191824 | 14 | 194 | 12.9 | 22.5 | 0.00 | 0.00 | 0.00 | 1 | 1012.2 |
| 20260503191724 | 14 | 205 | 12.9 | 22.5 | 0.00 | 0.00 | 0.00 | 1 | 1012.2 |
| 20260503191618 | 14 | 223 | 11.3 | 20.9 | 0.00 | 0.00 | 0.00 | 1 | 1012.2 |
| 20260503191518 | 14 | 227 | 11.3 | 19.3 | 0.00 | 0.00 | 0.00 | 1 | 1012.2 |
| 20260503191419 | 14 | 219 | 11.3 | 19.3 | 0.00 | 0.00 | 0.00 | 1 | 1012.3 |
| 20260503191319 | 14 | 209 | 11.3 | 20.9 | 0.00 | 0.00 | 0.00 | 1 | 1012.3 |
| 20260503191216 | 14 | 239 | 11.3 | 20.9 | 0.00 | 0.00 | 0.00 | 1 | 1012.3 |
| 20260503191111 | 14 | 194 | 11.3 | 20.9 | 0.00 | 0.00 | 0.00 | 1 | 1012.3 |
| 20260503191011 | 14 | 265 | 12.9 | 20.9 | 0.00 | 0.00 | 0.00 | 5 | 1012.3 |
| 20260503190910 | 15 | 223 | 12.9 | 20.9 | 0.00 | 0.00 | 0.00 | 3 | 1012.3 |
| 20260503190810 | 15 | 247 | 11.3 | 20.9 | 0.00 | 0.00 | 0.00 | 1 | 1012.3 |
| 20260503190710 | 15 | 190 | 11.3 | 20.9 | 0.00 | 0.00 | 0.00 | 1 | 1012.3 |
| 20260503190611 | 15 | 246 | 11.3 | 20.9 | 0.00 | 0.00 | 0.00 | 1 | 1012.3 |
| 20260503190511 | 15 | 215 | 11.3 | 20.9 | 0.00 | 0.00 | 0.00 | 4 | 1012.3 |
| 20260503190411 | 15 | 198 | 11.3 | 20.9 | 0.00 | 0.00 | 0.00 | 4 | 1012.2 |
| 20260503190310 | 15 | 239 | 11.3 | 20.9 | 0.00 | 0.00 | 0.00 | 2 | 1012.2 |
| 20260503190210 | 15 | 254 | 11.3 | 20.9 | 0.00 | 0.00 | 0.00 | 2 | 1012.2 |
| 20260503190110 | 15 | 265 | 11.3 | 20.9 | 0.00 | 0.00 | 0.00 | 6 | 1012.2 |
| 20260503190016 | 15 | 185 | 9.7 | 19.3 | 0.00 | 0.00 | 0.00 | 2 | 1012.2 |
| 20260503190012 | 15 | 254 | 9.7 | 20.9 | 0.00 | 0.00 | 0.00 | 5 | 1012.2 |
| 20260503185808 | 15 | 225 | 9.7 | 17.7 | 0.00 | 0.00 | 0.00 | 5 | 1012.2 |
| 20260503185707 | 15 | 142 | 9.7 | 17.7 | 0.00 | 0.00 | 0.00 | 4 | 1012.2 |
| 20260503185606 | 15 | 144 | 9.7 | 17.7 | 0.00 | 0.00 | 0.00 | 1 | 1012.2 |
| 20260503185505 | 15 | 165 | 9.7 | 17.7 | 0.00 | 0.00 | 0.00 | 1 | 1012.2 |
| 20260503185405 | 15 | 261 | 9.7 | 17.7 | 0.00 | 0.00 | 0.00 | 1 | 1012.2 |
| 20260503185305 | 15 | 253 | 9.7 | 17.7 | 0.00 | 0.00 | 0.00 | 1 | 1012.2 |
| 20260503185205 | 14 | 224 | 9.7 | 16.1 | 0.00 | 0.00 | 0.00 | 1 | 1012.2 |
| 20260503185104 | 14 | 225 | 9.7 | 16.1 | 0.00 | 0.00 | 0.00 | 1 | 1012.2 |
| 20260503185004 | 14 | 201 | 11.3 | 19.3 | 0.00 | 0.00 | 0.00 | 1 | 1012.2 |
| 20260503184859 | 14 | 213 | 11.3 | 19.3 | 0.00 | 0.00 | 0.00 | 1 | 1012.2 |
| 20260503184759 | 14 | 212 | 11.3 | 19.3 | 0.00 | 0.00 | 0.00 | 1 | 1012.2 |
| 20260503184658 | 14 | 196 | 11.3 | 19.3 | 0.00 | 0.00 | 0.00 | 1 | 1012.2 |
| 20260503184558 | 14 | 213 | 11.3 | 19.3 | 0.00 | 0.00 | 0.00 | 1 | 1012.2 |
| 20260503184457 | 14 | 140 | 11.3 | 19.3 | 0.00 | 0.00 | 0.00 | 1 | 1012.2 |
| 20260503184351 | 14 | 248 | 11.3 | 19.3 | 0.00 | 0.00 | 0.00 | 1 | 1012.2 |
| 20260503184251 | 14 | 236 | 11.3 | 19.3 | 0.00 | 0.00 | 0.00 | 1 | 1012.2 |
| 20260503184150 | 14 | 243 | 11.3 | 19.3 | 0.00 | 0.00 | 0.00 | 1 | 1012.1 |
| 20260503184050 | 14 | 228 | 11.3 | 19.3 | 0.00 | 0.00 | 0.00 | 1 | 1012.1 |
| 20260503183950 | 14 | 266 | 9.7 | 16.1 | 0.00 | 0.00 | 0.00 | 1 | 1012.1 |
| 20260503183845 | 14 | 186 | 9.7 | 16.1 | 0.00 | 0.00 | 0.00 | 1 | 1012.2 |
| 20260503183753 | 14 | 195 | 9.7 | 17.7 | 0.00 | 0.00 | 0.00 | 1 | 1012.1 |
| 20260503183748 | 14 | 210 | 9.7 | 16.1 | 0.00 | 0.00 | 0.00 | 1 | 1012.2 |
| 20260503183447 | 14 | 194 | 9.7 | 17.7 | 0.00 | 0.00 | 0.00 | 1 | 1012.1 |
| 20260503183443 | 14 | 169 | 9.7 | 17.7 | 0.00 | 0.00 | 0.00 | 1 | 1012.1 |
| 20260503183239 | 14 | 197 | 9.7 | 17.7 | 0.00 | 0.00 | 0.00 | 1 | 1012.1 |
| 20260503183138 | 14 | 198 | 9.7 | 17.7 | 0.00 | 0.00 | 0.00 | 1 | 1012.1 |
| 20260503183038 | 14 | 221 | 9.7 | 17.7 | 0.00 | 0.00 | 0.00 | 1 | 1012.1 |
| 20260503182938 | 14 | 227 | 9.7 | 17.7 | 0.00 | 0.00 | 0.00 | 1 | 1012.1 |
| 20260503182832 | 14 | 219 | 9.7 | 17.7 | 0.00 | 0.00 | 0.00 | 1 | 1012.1 |
| 20260503182732 | 14 | 197 | 9.7 | 17.7 | 0.00 | 0.00 | 0.00 | 1 | 1012.1 |
| 20260503182632 | 14 | 232 | 9.7 | 17.7 | 0.00 | 0.00 | 0.00 | 1 | 1012.1 |
| 20260503182533 | 14 | 226 | 9.7 | 17.7 | 0.00 | 0.00 | 0.00 | 1 | 1012.1 |
| 20260503182432 | 14 | 250 | 9.7 | 17.7 | 0.00 | 0.00 | 0.00 | 1 | 1012.1 |
| 20260503182326 | 14 | 228 | 9.7 | 16.1 | 0.00 | 0.00 | 0.00 | 1 | 1012.1 |
| 20260503182227 | 14 | 225 | 8.0 | 16.1 | 0.00 | 0.00 | 0.00 | 1 | 1012.1 |
| 20260503182127 | 14 | 259 | 9.7 | 16.1 | 0.00 | 0.00 | 0.00 | 1 | 1012.1 |
| 20260503182026 | 14 | 277 | 8.0 | 16.1 | 0.00 | 0.00 | 0.00 | 1 | 1012.2 |
| 20260503181929 | 14 | 198 | 8.0 | 14.5 | 0.00 | 0.00 | 0.00 | 1 | 1012.2 |
| 20260503181924 | 14 | 227 | 9.7 | 14.5 | 0.00 | 0.00 | 0.00 | 1 | 1012.1 |
| 20260503181720 | 14 | 185 | 9.7 | 16.1 | 0.00 | 0.00 | 0.00 | 1 | 1012.2 |
| 20260503181621 | 13 | 207 | 9.7 | 16.1 | 0.00 | 0.00 | 0.00 | 1 | 1012.1 |
| 20260503181520 | 13 | 186 | 9.7 | 16.1 | 0.00 | 0.00 | 0.00 | 1 | 1012.1 |
| 20260503181420 | 13 | 230 | 9.7 | 16.1 | 0.00 | 0.00 | 0.00 | 1 | 1012.1 |
| 20260503181214 | 13 | 200 | 9.7 | 16.1 | 0.00 | 0.00 | 0.00 | 1 | 1012.1 |
| 20260503181114 | 13 | 250 | 9.7 | 17.7 | 0.00 | 0.00 | 0.00 | 1 | 1012.0 |
| 20260503181014 | 13 | 262 | 9.7 | 17.7 | 0.00 | 0.00 | 0.00 | 1 | 1012.0 |
| 20260503180914 | 13 | 249 | 9.7 | 17.7 | 0.00 | 0.00 | 0.00 | 1 | 1012.0 |
| 20260503180808 | 13 | 237 | 9.7 | 17.7 | 0.00 | 0.00 | 0.00 | 1 | 1012.0 |
| 20260503180708 | 13 | 242 | 9.7 | 17.7 | 0.00 | 0.00 | 0.00 | 1 | 1012.1 |
| 20260503180608 | 13 | 246 | 9.7 | 17.7 | 0.00 | 0.00 | 0.00 | 1 | 1012.1 |
| 20260503180517 | 13 | 248 | 9.7 | 17.7 | 0.00 | 0.00 | 0.00 | 1 | 1012.0 |
| 20260503180409 | 13 | 248 | 9.7 | 17.7 | 0.00 | 0.00 | 0.00 | 1 | 1012.0 |
| 20260503180205 | 13 | 254 | 9.7 | 17.7 | 0.00 | 0.00 | 0.00 | 1 | 1012.0 |
| 20260503180104 | 13 | 226 | 9.7 | 16.1 | 0.00 | 0.00 | 0.00 | 1 | 1012.0 |
| 20260503180005 | 13 | 239 | 9.7 | 16.1 | 0.00 | 0.00 | 0.00 | 1 | 1012.0 |
| 20260503175902 | 13 | 263 | 9.7 | 16.1 | 0.00 | 0.00 | 0.00 | 1 | 1012.0 |
| 20260503175756 | 13 | 282 | 9.7 | 16.1 | 0.00 | 0.00 | 0.00 | 1 | 1012.0 |
| 20260503175656 | 13 | 269 | 9.7 | 16.1 | 0.00 | 0.00 | 0.00 | 1 | 1012.0 |
| 20260503175556 | 13 | 283 | 9.7 | 16.1 | 0.00 | 0.00 | 0.00 | 1 | 1012.0 |
| 20260503175457 | 13 | 246 | 9.7 | 16.1 | 0.00 | 0.00 | 0.00 | 1 | 1012.0 |
| 20260503175356 | 13 | 250 | 9.7 | 14.5 | 0.00 | 0.00 | 0.00 | 1 | 1012.0 |
| 20260503175250 | 13 | 275 | 9.7 | 17.7 | 0.00 | 0.00 | 0.00 | 1 | 1012.0 |
| 20260503175158 | 13 | 311 | 9.7 | 17.7 | 0.00 | 0.00 | 0.00 | 1 | 1012.1 |
| 20260503175154 | 13 | 259 | 9.7 | 17.7 | 0.00 | 0.00 | 0.00 | 1 | 1012.0 |
| 20260503174958 | 13 | 230 | 11.3 | 17.7 | 0.00 | 0.00 | 0.00 | 1 | 1012.0 |
| 20260503174954 | 13 | 276 | 9.7 | 17.7 | 0.00 | 0.00 | 0.00 | 1 | 1012.0 |
| 20260503174801 | 13 | 231 | 9.7 | 17.7 | 0.00 | 0.00 | 0.00 | 1 | 1012.0 |
| 20260503174757 | 13 | 267 | 9.7 | 17.7 | 0.00 | 0.00 | 0.00 | 1 | 1012.0 |
| 20260503174752 | 13 | 237 | 11.3 | 17.7 | 0.00 | 0.00 | 0.00 | 1 | 1012.0 |
| 20260503174456 | 12 | 299 | 9.7 | 17.7 | 0.00 | 0.00 | 0.00 | 1 | 1012.0 |
| 20260503174451 | 12 | 272 | 9.7 | 17.7 | 0.00 | 0.00 | 0.00 | 1 | 1012.0 |
| 20260503174343 | 12 | 267 | 9.7 | 16.1 | 0.00 | 0.00 | 0.00 | 1 | 1012.0 |
| 20260503174138 | 12 | 293 | 9.7 | 16.1 | 0.00 | 0.00 | 0.00 | 1 | 1012.0 |
| 20260503174038 | 12 | 289 | 9.7 | 17.7 | 0.00 | 0.00 | 0.00 | 1 | 1012.0 |
| 20260503173938 | 12 | 289 | 9.7 | 17.7 | 0.00 | 0.00 | 0.00 | 1 | 1012.1 |
| 20260503173838 | 12 | 267 | 11.3 | 17.7 | 0.00 | 0.00 | 0.00 | 1 | 1012.1 |
| 20260503173732 | 12 | 286 | 11.3 | 17.7 | 0.00 | 0.00 | 0.00 | 1 | 1012.1 |
| 20260503173633 | 12 | 263 | 11.3 | 17.7 | 0.00 | 0.00 | 0.00 | 1 | 1012.1 |
| 20260503173532 | 12 | 258 | 11.3 | 17.7 | 0.00 | 0.00 | 0.00 | 1 | 1012.1 |
| 20260503173447 | 12 | 230 | 11.3 | 17.7 | 0.00 | 0.00 | 0.00 | 1 | 1012.2 |
| 20260503173443 | 12 | 217 | 11.3 | 17.7 | 0.00 | 0.00 | 0.00 | 1 | 1012.1 |
| 20260503173335 | 12 | 289 | 11.3 | 17.7 | 0.00 | 0.00 | 0.00 | 1 | 1012.1 |
| 20260503173026 | 13 | 239 | 11.3 | 17.7 | 0.00 | 0.00 | 0.00 | 1 | 1012.1 |
| 20260503172934 | 13 | 222 | 9.7 | 17.7 | 0.00 | 0.00 | 0.00 | 1 | 1012.0 |
| 20260503172930 | 13 | 273 | 11.3 | 17.7 | 0.00 | 0.00 | 0.00 | 1 | 1012.1 |
| 20260503172720 | 13 | 244 | 9.7 | 17.7 | 0.00 | 0.00 | 0.00 | 1 | 1012.0 |
| 20260503172620 | 13 | 234 | 9.7 | 17.7 | 0.00 | 0.00 | 0.00 | 1 | 1012.1 |
| 20260503172520 | 13 | 198 | 11.3 | 17.7 | 0.00 | 0.00 | 0.00 | 1 | 1012.0 |
| 20260503172420 | 13 | 253 | 11.3 | 19.3 | 0.00 | 0.00 | 0.00 | 1 | 1012.0 |
| 20260503172320 | 13 | 225 | 11.3 | 19.3 | 0.00 | 0.00 | 0.00 | 1 | 1012.1 |
| 20260503172217 | 13 | 208 | 11.3 | 19.3 | 0.00 | 0.00 | 0.00 | 1 | 1012.1 |
| 20260503172117 | 13 | 245 | 11.3 | 19.3 | 0.00 | 0.00 | 0.00 | 1 | 1012.0 |
| 20260503172016 | 13 | 246 | 11.3 | 19.3 | 0.00 | 0.00 | 0.00 | 1 | 1012.0 |
| 20260503171916 | 13 | 215 | 11.3 | 19.3 | 0.00 | 0.00 | 0.00 | 1 | 1012.0 |
| 20260503171814 | 13 | 195 | 11.3 | 19.3 | 0.00 | 0.00 | 0.00 | 1 | 1012.1 |
| 20260503171711 | 13 | 215 | 12.9 | 19.3 | 0.00 | 0.00 | 0.00 | 1 | 1012.0 |
| 20260503171611 | 13 | 257 | 12.9 | 19.3 | 0.00 | 0.00 | 0.00 | 1 | 1012.1 |
| 20260503171510 | 13 | 252 | 11.3 | 19.3 | 0.00 | 0.00 | 0.00 | 1 | 1012.0 |
| 20260503171410 | 13 | 238 | 11.3 | 19.3 | 0.00 | 0.00 | 0.00 | 1 | 1012.0 |
| 20260503171308 | 13 | 230 | 11.3 | 19.3 | 0.00 | 0.00 | 0.00 | 1 | 1012.0 |
| 20260503171203 | 13 | 240 | 11.3 | 19.3 | 0.00 | 0.00 | 0.00 | 1 | 1012.0 |
| 20260503171102 | 13 | 247 | 9.7 | 19.3 | 0.00 | 0.00 | 0.00 | 1 | 1012.0 |
| 20260503171002 | 13 | 269 | 9.7 | 19.3 | 0.00 | 0.00 | 0.00 | 1 | 1012.0 |
| 20260503170902 | 13 | 257 | 9.7 | 19.3 | 0.00 | 0.00 | 0.00 | 1 | 1012.0 |
| 20260503170802 | 13 | 234 | 9.7 | 19.3 | 0.00 | 0.00 | 0.00 | 1 | 1012.0 |
| 20260503170656 | 13 | 0 | 9.7 | 19.3 | 0.00 | 0.00 | 0.00 | 1 | 1012.0 |
| 20260503170604 | 13 | 204 | 9.7 | 16.1 | 0.00 | 0.00 | 0.00 | 1 | 1012.0 |
| 20260503170600 | 13 | 224 | 9.7 | 16.1 | 0.00 | 0.00 | 0.00 | 1 | 1012.1 |
| 20260503170356 | 13 | 221 | 9.7 | 16.1 | 0.00 | 0.00 | 0.00 | 1 | 1012.0 |
| 20260503170256 | 13 | 232 | 9.7 | 16.1 | 0.00 | 0.00 | 0.00 | 1 | 1012.0 |
| 20260503170151 | 13 | 220 | 9.7 | 16.1 | 0.00 | 0.00 | 0.00 | 1 | 1012.0 |
| 20260503160144 | 12 | 213 | 8.0 | 14.5 | 0.00 | 0.00 | 0.00 | 1 | 1011.8 |
| 20260503151013 | 12 | 192 | 1.6 | 4.8 | 0.00 | 0.00 | 0.00 | 1 | 1011.4 |
| 20260503151009 | 12 | 192 | 3.2 | 4.8 | 0.00 | 0.00 | 0.00 | 1 | 1011.3 |
| 20260503150804 | 12 | 192 | 1.6 | 4.8 | 0.00 | 0.00 | 0.00 | 1 | 1011.4 |
| 20260503150704 | 12 | 192 | 3.2 | 4.8 | 0.00 | 0.00 | 0.00 | 1 | 1011.3 |
| 20260503150602 | 12 | 192 | 3.2 | 6.4 | 0.00 | 0.00 | 0.00 | 1 | 1011.3 |
| 20260503150502 | 12 | 192 | 3.2 | 6.4 | 0.00 | 0.00 | 0.00 | 1 | 1011.3 |
| 20260503150401 | 12 | 196 | 1.6 | 6.4 | 0.00 | 0.00 | 0.00 | 1 | 1011.3 |
| 20260503150302 | 12 | 196 | 1.6 | 6.4 | 0.00 | 0.00 | 0.00 | 1 | 1011.3 |
| 20260503150200 | 12 | 196 | 1.6 | 6.4 | 0.00 | 0.00 | 0.00 | 1 | 1011.3 |
| 20260503140251 | 12 | 239 | 9.7 | 16.1 | 0.00 | 0.00 | 0.00 | 1 | 1010.5 |
| 20260503140151 | 12 | 219 | 9.7 | 16.1 | 0.00 | 0.00 | 0.00 | 1 | 1010.5 |
| 20260503131321 | 12 | 244 | 9.7 | 16.1 | 0.00 | 0.00 | 0.00 | 1 | 1009.8 |
| 20260503131218 | 12 | 247 | 8.0 | 16.1 | 0.00 | 0.00 | 0.00 | 1 | 1009.9 |
| 20260503131115 | 12 | 244 | 8.0 | 16.1 | 0.00 | 0.00 | 0.00 | 1 | 1009.8 |
| 20260503131016 | 12 | 240 | 8.0 | 12.9 | 0.00 | 0.00 | 0.00 | 1 | 1009.8 |
| 20260503130916 | 12 | 244 | 8.0 | 12.9 | 0.00 | 0.00 | 0.00 | 1 | 1009.7 |
| 20260503130716 | 12 | 271 | 8.0 | 12.9 | 0.00 | 0.00 | 0.00 | 1 | 1009.8 |
| 20260503130711 | 12 | 252 | 6.4 | 12.9 | 0.00 | 0.00 | 0.00 | 1 | 1009.8 |
| 20260503130517 | 12 | 250 | 6.4 | 12.9 | 0.00 | 0.00 | 0.00 | 1 | 1009.8 |
| 20260503130512 | 12 | 243 | 6.4 | 12.9 | 0.00 | 0.00 | 0.00 | 1 | 1009.8 |
| 20260503130307 | 12 | 245 | 6.4 | 12.9 | 0.00 | 0.00 | 0.00 | 1 | 1009.9 |
| 20260503130207 | 12 | 243 | 6.4 | 12.9 | 0.00 | 0.00 | 0.00 | 1 | 1009.9 |
| 20260503130106 | 12 | 234 | 6.4 | 12.9 | 0.00 | 0.00 | 0.00 | 1 | 1009.9 |
| 20260503120205 | 12 | 272 | 6.4 | 12.9 | 0.00 | 0.00 | 0.00 | 1 | 1009.8 |
| 20260503110758 | 11 | 245 | 8.0 | 14.5 | 0.00 | 0.00 | 0.00 | 1 | 1009.8 |
| 20260503110658 | 11 | 236 | 8.0 | 14.5 | 0.00 | 0.00 | 0.00 | 1 | 1009.9 |
| 20260503110558 | 11 | 284 | 8.0 | 14.5 | 0.00 | 0.00 | 0.00 | 1 | 1009.8 |
| 20260503110458 | 11 | 273 | 8.0 | 14.5 | 0.00 | 0.00 | 0.00 | 1 | 1009.9 |
| 20260503110355 | 11 | 234 | 8.0 | 14.5 | 0.00 | 0.00 | 0.00 | 1 | 1009.8 |
| 20260503110251 | 11 | 278 | 8.0 | 14.5 | 0.00 | 0.00 | 0.00 | 1 | 1009.9 |
| 20260503110150 | 11 | 275 | 8.0 | 14.5 | 0.00 | 0.00 | 0.00 | 1 | 1009.9 |
| 20260503100238 | 11 | 273 | 8.0 | 19.3 | 0.00 | 0.00 | 0.00 | 1 | 1009.8 |
| 20260503100135 | 11 | 259 | 9.7 | 19.3 | 0.00 | 0.00 | 0.00 | 1 | 1009.8 |
| 20260503090445 | 11 | 292 | 11.3 | 20.9 | 0.00 | 0.00 | 0.00 | 1 | 1010.2 |
| 20260503090441 | 11 | 256 | 11.3 | 20.9 | 0.00 | 0.00 | 0.00 | 1 | 1010.1 |
| 20260503090238 | 11 | 266 | 11.3 | 20.9 | 0.00 | 0.00 | 0.00 | 1 | 1010.2 |
| 20260503090137 | 11 | 271 | 11.3 | 20.9 | 0.00 | 0.00 | 0.00 | 1 | 1010.2 |
| 20260503081623 | 11 | 261 | 9.7 | 19.3 | 0.00 | 0.00 | 0.00 | 1 | 1010.7 |
| 20260503081515 | 11 | 261 | 8.0 | 19.3 | 0.00 | 0.00 | 0.00 | 1 | 1010.7 |
| 20260503081319 | 11 | 269 | 9.7 | 17.7 | 0.00 | 0.00 | 0.00 | 1 | 1010.8 |
| 20260503081315 | 11 | 257 | 8.0 | 19.3 | 0.00 | 0.00 | 0.00 | 1 | 1010.8 |
| 20260503081111 | 11 | 259 | 9.7 | 17.7 | 0.00 | 0.00 | 0.00 | 1 | 1010.9 |
| 20260503081011 | 11 | 271 | 9.7 | 17.7 | 0.00 | 0.00 | 0.00 | 1 | 1010.9 |
| 20260503080911 | 11 | 285 | 9.7 | 17.7 | 0.00 | 0.00 | 0.00 | 1 | 1010.8 |
| 20260503080811 | 11 | 277 | 11.3 | 19.3 | 0.00 | 0.00 | 0.00 | 1 | 1010.8 |
| 20260503080710 | 11 | 309 | 11.3 | 19.3 | 0.00 | 0.00 | 0.00 | 1 | 1010.8 |
| 20260503080611 | 11 | 263 | 11.3 | 19.3 | 0.00 | 0.00 | 0.00 | 1 | 1010.7 |
| 20260503080509 | 11 | 254 | 11.3 | 19.3 | 0.00 | 0.00 | 0.00 | 1 | 1010.7 |
| 20260503080409 | 11 | 275 | 11.3 | 19.3 | 0.00 | 0.00 | 0.00 | 1 | 1010.8 |
| 20260503080308 | 11 | 273 | 11.3 | 20.9 | 0.00 | 0.00 | 0.00 | 1 | 1010.7 |
| 20260503080209 | 11 | 294 | 11.3 | 20.9 | 0.00 | 0.00 | 0.00 | 1 | 1010.7 |
| 20260503080109 | 11 | 273 | 11.3 | 20.9 | 0.00 | 0.00 | 0.00 | 1 | 1010.7 |
| 20260503072801 | 11 | 270 | 9.7 | 16.1 | 0.00 | 0.00 | 0.00 | 1 | 1010.6 |
| 20260503072701 | 11 | 287 | 9.7 | 20.9 | 0.00 | 0.00 | 0.00 | 1 | 1010.7 |
| 20260503072600 | 11 | 279 | 9.7 | 20.9 | 0.00 | 0.00 | 0.00 | 1 | 1010.6 |
| 20260503072500 | 11 | 279 | 9.7 | 20.9 | 0.00 | 0.00 | 0.00 | 1 | 1010.6 |
| 20260503072401 | 11 | 285 | 9.7 | 20.9 | 0.00 | 0.00 | 0.00 | 1 | 1010.6 |
| 20260503072301 | 11 | 272 | 9.7 | 20.9 | 0.00 | 0.00 | 0.00 | 1 | 1010.6 |
| 20260503072201 | 11 | 264 | 9.7 | 20.9 | 0.00 | 0.00 | 0.00 | 1 | 1010.6 |
| 20260503072101 | 11 | 263 | 9.7 | 20.9 | 0.00 | 0.00 | 0.00 | 1 | 1010.7 |
| 20260503072000 | 11 | 281 | 9.7 | 20.9 | 0.00 | 0.00 | 0.00 | 1 | 1010.7 |
| 20260503071901 | 11 | 281 | 8.0 | 20.9 | 0.00 | 0.00 | 0.00 | 1 | 1010.7 |
| 20260503071800 | 11 | 263 | 8.0 | 20.9 | 0.00 | 0.00 | 0.00 | 1 | 1010.7 |
| 20260503071700 | 11 | 261 | 8.0 | 19.3 | 0.00 | 0.00 | 0.00 | 1 | 1010.7 |
| 20260503071601 | 11 | 266 | 8.0 | 17.7 | 0.00 | 0.00 | 0.00 | 1 | 1010.7 |
| 20260503071501 | 11 | 287 | 8.0 | 17.7 | 0.00 | 0.00 | 0.00 | 1 | 1010.7 |
| 20260503071401 | 11 | 275 | 9.7 | 17.7 | 0.00 | 0.00 | 0.00 | 1 | 1010.7 |
| 20260503071301 | 11 | 285 | 9.7 | 16.1 | 0.00 | 0.00 | 0.00 | 1 | 1010.7 |
| 20260503071209 | 11 | 287 | 9.7 | 16.1 | 0.00 | 0.00 | 0.00 | 1 | 1010.7 |
| 20260503071101 | 11 | 278 | 9.7 | 16.1 | 0.00 | 0.00 | 0.00 | 1 | 1010.7 |
| 20260503070856 | 11 | 267 | 9.7 | 16.1 | 0.00 | 0.00 | 0.00 | 1 | 1010.7 |
| 20260503070756 | 11 | 276 | 9.7 | 16.1 | 0.00 | 0.00 | 0.00 | 1 | 1010.7 |
| 20260503070656 | 11 | 270 | 9.7 | 16.1 | 0.00 | 0.00 | 0.00 | 1 | 1010.7 |
| 20260503070605 | 11 | 265 | 9.7 | 16.1 | 0.00 | 0.00 | 0.00 | 1 | 1010.7 |
| 20260503070601 | 11 | 272 | 9.7 | 16.1 | 0.00 | 0.00 | 0.00 | 1 | 1010.7 |
| 20260503070356 | 11 | 289 | 9.7 | 16.1 | 0.00 | 0.00 | 0.00 | 1 | 1010.7 |
| 20260503070256 | 11 | 277 | 8.0 | 16.1 | 0.00 | 0.00 | 0.00 | 1 | 1010.7 |
| 20260503070156 | 11 | 273 | 8.0 | 16.1 | 0.00 | 0.00 | 0.00 | 1 | 1010.7 |
| 20260503060327 | 12 | 242 | 8.0 | 16.1 | 0.00 | 0.00 | 0.00 | 1 | 1010.9 |
| 20260503060228 | 12 | 292 | 9.7 | 16.1 | 0.00 | 0.00 | 0.00 | 1 | 1010.8 |
| 20260503060124 | 12 | 274 | 9.7 | 16.1 | 0.00 | 0.00 | 0.00 | 1 | 1010.9 |
| 20260503055121 | 12 | 290 | 11.3 | 16.1 | 0.00 | 0.00 | 0.00 | 1 | 1011.0 |
| 20260503055021 | 12 | 281 | 9.7 | 16.1 | 0.00 | 0.00 | 0.00 | 1 | 1011.0 |
| 20260503054918 | 12 | 255 | 9.7 | 16.1 | 0.00 | 0.00 | 0.00 | 1 | 1011.0 |
| 20260503054818 | 12 | 273 | 9.7 | 19.3 | 0.00 | 0.00 | 0.00 | 1 | 1011.1 |
| 20260503054718 | 12 | 261 | 11.3 | 19.3 | 0.00 | 0.00 | 0.00 | 1 | 1011.1 |
| 20260503054618 | 12 | 301 | 9.7 | 19.3 | 0.00 | 0.00 | 0.00 | 1 | 1011.1 |
| 20260503054518 | 12 | 277 | 9.7 | 19.3 | 0.00 | 0.00 | 0.00 | 1 | 1011.1 |
| 20260503054418 | 12 | 244 | 9.7 | 19.3 | 0.00 | 0.00 | 0.00 | 1 | 1011.1 |
| 20260503054318 | 12 | 254 | 8.0 | 19.3 | 0.00 | 0.00 | 0.00 | 1 | 1011.1 |
| 20260503054218 | 12 | 240 | 8.0 | 19.3 | 0.00 | 0.00 | 0.00 | 1 | 1011.1 |
| 20260503054118 | 12 | 230 | 8.0 | 19.3 | 0.00 | 0.00 | 0.00 | 1 | 1011.1 |
| 20260503054018 | 12 | 231 | 8.0 | 19.3 | 0.00 | 0.00 | 0.00 | 1 | 1011.1 |
| 20260503053918 | 12 | 274 | 8.0 | 19.3 | 0.00 | 0.00 | 0.00 | 1 | 1011.2 |
| 20260503053818 | 12 | 251 | 8.0 | 16.1 | 0.00 | 0.00 | 0.00 | 1 | 1011.2 |
| 20260503053718 | 12 | 259 | 8.0 | 16.1 | 0.00 | 0.00 | 0.00 | 1 | 1011.2 |
| 20260503053617 | 12 | 256 | 8.0 | 16.1 | 0.00 | 0.00 | 0.00 | 1 | 1011.2 |
| 20260503053517 | 12 | 232 | 8.0 | 16.1 | 0.00 | 0.00 | 0.00 | 1 | 1011.2 |
| 20260503053418 | 12 | 269 | 9.7 | 16.1 | 0.00 | 0.00 | 0.00 | 1 | 1011.3 |
| 20260503053318 | 12 | 265 | 9.7 | 19.3 | 0.00 | 0.00 | 0.00 | 1 | 1011.2 |
| 20260503053218 | 12 | 257 | 11.3 | 19.3 | 0.00 | 0.00 | 0.00 | 1 | 1011.3 |
| 20260503053118 | 12 | 214 | 11.3 | 19.3 | 0.00 | 0.00 | 0.00 | 1 | 1011.2 |
| 20260503053013 | 12 | 247 | 11.3 | 19.3 | 0.00 | 0.00 | 0.00 | 1 | 1011.2 |
| 20260503052913 | 12 | 251 | 11.3 | 19.3 | 0.00 | 0.00 | 0.00 | 1 | 1011.2 |
| 20260503052814 | 12 | 287 | 12.9 | 20.9 | 0.00 | 0.00 | 0.00 | 1 | 1011.2 |
| 20260503052714 | 12 | 268 | 12.9 | 20.9 | 0.00 | 0.00 | 0.00 | 1 | 1011.2 |
| 20260503052614 | 12 | 239 | 12.9 | 20.9 | 0.00 | 0.00 | 0.00 | 1 | 1011.2 |
| 20260503052513 | 12 | 259 | 12.9 | 20.9 | 0.00 | 0.00 | 0.00 | 1 | 1011.2 |
| 20260503052414 | 12 | 267 | 12.9 | 20.9 | 0.00 | 0.00 | 0.00 | 1 | 1011.2 |
| 20260503052314 | 12 | 276 | 12.9 | 20.9 | 0.00 | 0.00 | 0.00 | 1 | 1011.2 |
| 20260503052214 | 12 | 244 | 12.9 | 20.9 | 0.00 | 0.00 | 0.00 | 1 | 1011.2 |
| 20260503052114 | 12 | 262 | 12.9 | 20.9 | 0.00 | 0.00 | 0.00 | 1 | 1011.2 |
| 20260503052014 | 12 | 264 | 12.9 | 20.9 | 0.00 | 0.00 | 0.00 | 1 | 1011.2 |
| 20260503051914 | 12 | 284 | 12.9 | 20.9 | 0.00 | 0.00 | 0.00 | 1 | 1011.2 |
| 20260503051814 | 12 | 257 | 12.9 | 20.9 | 0.00 | 0.00 | 0.00 | 1 | 1011.2 |
| 20260503051715 | 12 | 274 | 12.9 | 20.9 | 0.00 | 0.00 | 0.00 | 1 | 1011.1 |
| 20260503051614 | 12 | 278 | 12.9 | 20.9 | 0.00 | 0.00 | 0.00 | 1 | 1011.2 |
| 20260503051513 | 12 | 277 | 12.9 | 22.5 | 0.00 | 0.00 | 0.00 | 1 | 1011.2 |
| 20260503051413 | 12 | 284 | 12.9 | 22.5 | 0.00 | 0.00 | 0.00 | 1 | 1011.2 |
| 20260503051313 | 12 | 283 | 12.9 | 22.5 | 0.00 | 0.00 | 0.00 | 1 | 1011.2 |
| 20260503051214 | 12 | 282 | 12.9 | 22.5 | 0.00 | 0.00 | 0.00 | 1 | 1011.2 |
| 20260503051110 | 12 | 243 | 12.9 | 22.5 | 0.00 | 0.00 | 0.00 | 1 | 1011.2 |
| 20260503051010 | 12 | 278 | 12.9 | 22.5 | 0.00 | 0.00 | 0.00 | 1 | 1011.2 |
| 20260503050910 | 12 | 267 | 11.3 | 22.5 | 0.00 | 0.00 | 0.00 | 1 | 1011.2 |
| 20260503050810 | 12 | 274 | 12.9 | 22.5 | 0.00 | 0.00 | 0.00 | 1 | 1011.2 |
| 20260503050709 | 12 | 265 | 11.3 | 22.5 | 0.00 | 0.00 | 0.00 | 1 | 1011.2 |
| 20260503050610 | 12 | 267 | 11.3 | 22.5 | 0.00 | 0.00 | 0.00 | 1 | 1011.2 |
| 20260503050509 | 12 | 261 | 11.3 | 20.9 | 0.00 | 0.00 | 0.00 | 1 | 1011.2 |
| 20260503050409 | 12 | 252 | 11.3 | 20.9 | 0.00 | 0.00 | 0.00 | 1 | 1011.2 |
| 20260503050309 | 12 | 236 | 11.3 | 20.9 | 0.00 | 0.00 | 0.00 | 1 | 1011.2 |
| 20260503050209 | 12 | 258 | 11.3 | 20.9 | 0.00 | 0.00 | 0.00 | 1 | 1011.1 |
| 20260503050110 | 12 | 273 | 11.3 | 20.9 | 0.00 | 0.00 | 0.00 | 1 | 1011.2 |
| 20260503050010 | 12 | 281 | 11.3 | 20.9 | 0.00 | 0.00 | 0.00 | 1 | 1011.2 |
| 20260503045910 | 12 | 279 | 11.3 | 20.9 | 0.00 | 0.00 | 0.00 | 1 | 1011.2 |
| 20260503045810 | 12 | 257 | 9.7 | 20.9 | 0.00 | 0.00 | 0.00 | 1 | 1011.2 |
| 20260503045710 | 12 | 252 | 9.7 | 20.9 | 0.00 | 0.00 | 0.00 | 1 | 1011.2 |
| 20260503045610 | 12 | 263 | 9.7 | 20.9 | 0.00 | 0.00 | 0.00 | 1 | 1011.2 |
| 20260503045509 | 12 | 251 | 9.7 | 20.9 | 0.00 | 0.00 | 0.00 | 1 | 1011.1 |
| 20260503045410 | 12 | 246 | 9.7 | 19.3 | 0.00 | 0.00 | 0.00 | 1 | 1011.1 |
| 20260503045310 | 12 | 275 | 9.7 | 19.3 | 0.00 | 0.00 | 0.00 | 1 | 1011.1 |
| 20260503045204 | 12 | 263 | 9.7 | 19.3 | 0.00 | 0.00 | 0.00 | 1 | 1011.1 |
| 20260503045104 | 12 | 277 | 9.7 | 19.3 | 0.00 | 0.00 | 0.00 | 1 | 1011.1 |
| 20260503045003 | 12 | 282 | 9.7 | 19.3 | 0.00 | 0.00 | 0.00 | 1 | 1011.1 |
| 20260503044903 | 12 | 284 | 9.7 | 20.9 | 0.00 | 0.00 | 0.00 | 1 | 1011.1 |
| 20260503044803 | 12 | 258 | 11.3 | 24.1 | 0.00 | 0.00 | 0.00 | 1 | 1011.1 |
| 20260503044658 | 12 | 321 | 11.3 | 24.1 | 0.00 | 0.00 | 0.00 | 1 | 1011.2 |
| 20260503044557 | 12 | 285 | 11.3 | 24.1 | 0.00 | 0.00 | 0.00 | 1 | 1011.1 |
| 20260503044458 | 12 | 274 | 11.3 | 24.1 | 0.00 | 0.00 | 0.00 | 1 | 1011.1 |
| 20260503044356 | 12 | 301 | 12.9 | 24.1 | 0.00 | 0.00 | 0.00 | 1 | 1011.1 |
| 20260503044254 | 12 | 261 | 12.9 | 24.1 | 0.00 | 0.00 | 0.00 | 1 | 1011.1 |
| 20260503044153 | 12 | 255 | 12.9 | 24.1 | 0.00 | 0.00 | 0.00 | 1 | 1011.1 |
| 20260503044054 | 12 | 267 | 12.9 | 24.1 | 0.00 | 0.00 | 0.00 | 1 | 1011.1 |
| 20260503043954 | 12 | 313 | 12.9 | 24.1 | 0.00 | 0.00 | 0.00 | 1 | 1011.1 |
| 20260503043854 | 12 | 273 | 12.9 | 24.1 | 0.00 | 0.00 | 0.00 | 1 | 1011.2 |
| 20260503043754 | 12 | 289 | 12.9 | 20.9 | 0.00 | 0.00 | 0.00 | 1 | 1011.1 |
| 20260503043653 | 12 | 254 | 11.3 | 20.9 | 0.00 | 0.00 | 0.00 | 1 | 1011.2 |
| 20260503043551 | 12 | 268 | 11.3 | 20.9 | 0.00 | 0.00 | 0.00 | 1 | 1011.1 |
| 20260503043452 | 12 | 281 | 11.3 | 20.9 | 0.00 | 0.00 | 0.00 | 1 | 1011.1 |
| 20260503043352 | 12 | 273 | 11.3 | 19.3 | 0.00 | 0.00 | 0.00 | 1 | 1011.1 |
| 20260503043252 | 12 | 270 | 11.3 | 19.3 | 0.00 | 0.00 | 0.00 | 1 | 1011.1 |
| 20260503043152 | 12 | 266 | 11.3 | 19.3 | 0.00 | 0.00 | 0.00 | 1 | 1011.0 |
| 20260503043051 | 12 | 253 | 11.3 | 17.7 | 0.00 | 0.00 | 0.00 | 1 | 1011.0 |
| 20260503042951 | 12 | 299 | 11.3 | 17.7 | 0.00 | 0.00 | 0.00 | 1 | 1011.0 |
| 20260503042852 | 12 | 263 | 11.3 | 19.3 | 0.00 | 0.00 | 0.00 | 1 | 1011.0 |
| 20260503042752 | 12 | 269 | 11.3 | 19.3 | 0.00 | 0.00 | 0.00 | 1 | 1011.0 |
| 20260503042652 | 12 | 263 | 11.3 | 19.3 | 0.00 | 0.00 | 0.00 | 1 | 1011.0 |
| 20260503042550 | 12 | 262 | 11.3 | 19.3 | 0.00 | 0.00 | 0.00 | 1 | 1011.1 |
| 20260503042445 | 12 | 225 | 11.3 | 20.9 | 0.00 | 0.00 | 0.00 | 1 | 1011.0 |
| 20260503042345 | 12 | 281 | 11.3 | 20.9 | 0.00 | 0.00 | 0.00 | 1 | 1011.0 |
| 20260503042245 | 12 | 284 | 12.9 | 20.9 | 0.00 | 0.00 | 0.00 | 1 | 1011.0 |
| 20260503042146 | 12 | 311 | 11.3 | 20.9 | 0.00 | 0.00 | 0.00 | 1 | 1011.0 |
| 20260503042045 | 12 | 271 | 11.3 | 20.9 | 0.00 | 0.00 | 0.00 | 1 | 1011.0 |
| 20260503041938 | 12 | 266 | 11.3 | 20.9 | 0.00 | 0.00 | 0.00 | 1 | 1011.0 |
| 20260503041837 | 12 | 275 | 11.3 | 20.9 | 0.00 | 0.00 | 0.00 | 1 | 1011.0 |
| 20260503041737 | 12 | 346 | 12.9 | 20.9 | 0.00 | 0.00 | 0.00 | 1 | 1011.0 |
| 20260503041637 | 12 | 261 | 12.9 | 20.9 | 0.00 | 0.00 | 0.00 | 1 | 1011.0 |
| 20260503041537 | 12 | 276 | 12.9 | 20.9 | 0.00 | 0.00 | 0.00 | 1 | 1011.0 |
| 20260503041434 | 12 | 273 | 12.9 | 20.9 | 0.00 | 0.00 | 0.00 | 1 | 1011.0 |
| 20260503041333 | 12 | 246 | 11.3 | 20.9 | 0.00 | 0.00 | 0.00 | 1 | 1011.0 |
| 20260503041233 | 12 | 211 | 11.3 | 19.3 | 0.00 | 0.00 | 0.00 | 1 | 1011.0 |
| 20260503041132 | 12 | 272 | 11.3 | 19.3 | 0.00 | 0.00 | 0.00 | 1 | 1011.0 |
| 20260503041040 | 12 | 287 | 11.3 | 19.3 | 0.00 | 0.00 | 0.00 | 1 | 1011.0 |
| 20260503041036 | 12 | 282 | 11.3 | 19.3 | 0.00 | 0.00 | 0.00 | 1 | 1011.0 |
| 20260503040832 | 12 | 256 | 11.3 | 19.3 | 0.00 | 0.00 | 0.00 | 1 | 1011.0 |
| 20260503040731 | 12 | 306 | 11.3 | 19.3 | 0.00 | 0.00 | 0.00 | 1 | 1011.0 |
| 20260503040631 | 12 | 270 | 11.3 | 19.3 | 0.00 | 0.00 | 0.00 | 1 | 1010.9 |
| 20260503040532 | 12 | 279 | 11.3 | 19.3 | 0.00 | 0.00 | 0.00 | 1 | 1010.9 |
| 20260503040432 | 12 | 263 | 11.3 | 19.3 | 0.00 | 0.00 | 0.00 | 1 | 1010.9 |
| 20260503040332 | 12 | 283 | 11.3 | 17.7 | 0.00 | 0.00 | 0.00 | 1 | 1010.9 |
| 20260503040231 | 12 | 254 | 11.3 | 17.7 | 0.00 | 0.00 | 0.00 | 1 | 1011.0 |
| 20260503040131 | 12 | 272 | 11.3 | 19.3 | 0.00 | 0.00 | 0.00 | 1 | 1011.0 |
| 20260503040030 | 12 | 267 | 11.3 | 19.3 | 0.00 | 0.00 | 0.00 | 1 | 1011.0 |
| 20260503035930 | 12 | 293 | 12.9 | 22.5 | 0.00 | 0.00 | 0.00 | 1 | 1011.0 |
| 20260503035827 | 12 | 269 | 12.9 | 22.5 | 0.00 | 0.00 | 0.00 | 1 | 1011.0 |
| 20260503035728 | 12 | 272 | 12.9 | 22.5 | 0.00 | 0.00 | 0.00 | 1 | 1010.9 |
| 20260503035628 | 12 | 265 | 12.9 | 22.5 | 0.00 | 0.00 | 0.00 | 1 | 1010.9 |
| 20260503035527 | 12 | 272 | 12.9 | 22.5 | 0.00 | 0.00 | 0.00 | 1 | 1010.9 |
| 20260503035427 | 12 | 273 | 14.5 | 22.5 | 0.00 | 0.00 | 0.00 | 1 | 1010.8 |
| 20260503035327 | 12 | 297 | 14.5 | 22.5 | 0.00 | 0.00 | 0.00 | 1 | 1010.9 |
| 20260503035221 | 12 | 271 | 14.5 | 22.5 | 0.00 | 0.00 | 0.00 | 1 | 1010.8 |
| 20260503035121 | 12 | 285 | 14.5 | 22.5 | 0.00 | 0.00 | 0.00 | 1 | 1010.8 |
| 20260503035022 | 12 | 275 | 14.5 | 22.5 | 0.00 | 0.00 | 0.00 | 1 | 1010.8 |
| 20260503034922 | 12 | 270 | 14.5 | 22.5 | 0.00 | 0.00 | 0.00 | 1 | 1010.8 |
| 20260503034821 | 12 | 281 | 14.5 | 22.5 | 0.00 | 0.00 | 0.00 | 1 | 1010.8 |
| 20260503034717 | 12 | 282 | 12.9 | 22.5 | 0.00 | 0.00 | 0.00 | 1 | 1010.8 |
| 20260503034617 | 12 | 248 | 12.9 | 20.9 | 0.00 | 0.00 | 0.00 | 1 | 1010.8 |
| 20260503034532 | 12 | 269 | 12.9 | 20.9 | 0.00 | 0.00 | 0.00 | 1 | 1010.8 |
| 20260503034528 | 12 | 286 | 12.9 | 20.9 | 0.00 | 0.00 | 0.00 | 1 | 1010.8 |
| 20260503034523 | 12 | 271 | 12.9 | 20.9 | 0.00 | 0.00 | 0.00 | 1 | 1010.8 |
| 20260503034209 | 12 | 277 | 12.9 | 20.9 | 0.00 | 0.00 | 0.00 | 1 | 1010.8 |
| 20260503034109 | 12 | 254 | 12.9 | 20.9 | 0.00 | 0.00 | 0.00 | 1 | 1010.8 |
| 20260503034009 | 12 | 280 | 12.9 | 20.9 | 0.00 | 0.00 | 0.00 | 1 | 1010.8 |
| 20260503033917 | 12 | 257 | 12.9 | 22.5 | 0.00 | 0.00 | 0.00 | 1 | 1010.7 |
| 20260503033913 | 12 | 257 | 12.9 | 22.5 | 0.00 | 0.00 | 0.00 | 1 | 1010.8 |
| 20260503033704 | 12 | 291 | 12.9 | 22.5 | 0.00 | 0.00 | 0.00 | 1 | 1010.7 |
| 20260503033603 | 12 | 263 | 12.9 | 22.5 | 0.00 | 0.00 | 0.00 | 1 | 1010.7 |
| 20260503033503 | 12 | 264 | 12.9 | 22.5 | 0.00 | 0.00 | 0.00 | 1 | 1010.7 |
| 20260503033403 | 12 | 280 | 12.9 | 22.5 | 0.00 | 0.00 | 0.00 | 1 | 1010.6 |
| 20260503033303 | 12 | 260 | 12.9 | 22.5 | 0.00 | 0.00 | 0.00 | 1 | 1010.6 |
| 20260503033200 | 12 | 265 | 12.9 | 22.5 | 0.00 | 0.00 | 0.00 | 1 | 1010.6 |
| 20260503033057 | 12 | 263 | 12.9 | 24.1 | 0.00 | 0.00 | 0.00 | 1 | 1010.7 |
| 20260503032958 | 12 | 265 | 12.9 | 24.1 | 0.00 | 0.00 | 0.00 | 1 | 1010.6 |
| 20260503032905 | 12 | 294 | 14.5 | 24.1 | 0.00 | 0.00 | 0.00 | 1 | 1010.6 |
| 20260503032901 | 12 | 265 | 12.9 | 24.1 | 0.00 | 0.00 | 0.00 | 1 | 1010.6 |
| 20260503032705 | 12 | 251 | 14.5 | 24.1 | 0.00 | 0.00 | 0.00 | 1 | 1010.6 |
| 20260503032352 | 12 | 276 | 12.9 | 24.1 | 0.00 | 0.00 | 0.00 | 1 | 1010.6 |
| 20260503032251 | 12 | 269 | 12.9 | 24.1 | 0.00 | 0.00 | 0.00 | 1 | 1010.6 |
| 20260503032145 | 12 | 270 | 12.9 | 24.1 | 0.00 | 0.00 | 0.00 | 1 | 1010.6 |
| 20260503032045 | 12 | 292 | 12.9 | 25.7 | 0.00 | 0.00 | 0.00 | 1 | 1010.5 |
| 20260503031945 | 12 | 290 | 12.9 | 25.7 | 0.00 | 0.00 | 0.00 | 1 | 1010.5 |
| 20260503031845 | 12 | 246 | 12.9 | 25.7 | 0.00 | 0.00 | 0.00 | 1 | 1010.5 |
| 20260503031745 | 12 | 281 | 12.9 | 25.7 | 0.00 | 0.00 | 0.00 | 1 | 1010.4 |
| 20260503031640 | 12 | 275 | 12.9 | 25.7 | 0.00 | 0.00 | 0.00 | 1 | 1010.4 |
| 20260503031548 | 12 | 292 | 12.9 | 25.7 | 0.00 | 0.00 | 0.00 | 1 | 1010.4 |
| 20260503031544 | 12 | 277 | 12.9 | 25.7 | 0.00 | 0.00 | 0.00 | 1 | 1010.4 |
| 20260503031340 | 12 | 292 | 14.5 | 25.7 | 0.00 | 0.00 | 0.00 | 1 | 1010.3 |
| 20260503031238 | 12 | 286 | 14.5 | 25.7 | 0.00 | 0.00 | 0.00 | 1 | 1010.2 |
| 20260503031134 | 12 | 286 | 12.9 | 25.7 | 0.00 | 0.00 | 0.00 | 1 | 1010.3 |
| 20260503031034 | 12 | 206 | 12.9 | 22.5 | 0.00 | 0.00 | 0.00 | 1 | 1010.3 |
| 20260503030934 | 12 | 284 | 12.9 | 22.5 | 0.00 | 0.00 | 0.00 | 1 | 1010.3 |
| 20260503030833 | 12 | 268 | 12.9 | 22.5 | 0.00 | 0.00 | 0.00 | 1 | 1010.3 |
| 20260503030733 | 12 | 284 | 12.9 | 22.5 | 0.00 | 0.00 | 0.00 | 1 | 1010.3 |
| 20260503030628 | 12 | 295 | 12.9 | 22.5 | 0.00 | 0.00 | 0.00 | 1 | 1010.2 |
| 20260503030527 | 12 | 284 | 14.5 | 22.5 | 0.00 | 0.00 | 0.00 | 1 | 1010.2 |
| 20260503030427 | 12 | 259 | 14.5 | 22.5 | 0.00 | 0.00 | 0.00 | 1 | 1010.2 |
| 20260503030327 | 12 | 273 | 14.5 | 22.5 | 0.00 | 0.00 | 0.00 | 1 | 1010.2 |
| 20260503030227 | 12 | 296 | 12.9 | 22.5 | 0.00 | 0.00 | 0.00 | 1 | 1010.2 |
| 20260503030121 | 12 | 266 | 14.5 | 22.5 | 0.00 | 0.00 | 0.00 | 1 | 1010.2 |
| 20260503030021 | 12 | 284 | 12.9 | 22.5 | 0.00 | 0.00 | 0.00 | 1 | 1010.2 |
| 20260503025921 | 12 | 281 | 12.9 | 22.5 | 0.00 | 0.00 | 0.00 | 1 | 1010.2 |
| 20260503025822 | 12 | 279 | 14.5 | 25.7 | 0.00 | 0.00 | 0.00 | 1 | 1010.2 |
| 20260503025721 | 12 | 265 | 14.5 | 25.7 | 0.00 | 0.00 | 0.00 | 1 | 1010.2 |
| 20260503025615 | 12 | 276 | 14.5 | 25.7 | 0.00 | 0.00 | 0.00 | 1 | 1010.2 |
| 20260503025515 | 12 | 290 | 14.5 | 25.7 | 0.00 | 0.00 | 0.00 | 1 | 1010.2 |
| 20260503025416 | 12 | 270 | 14.5 | 25.7 | 0.00 | 0.00 | 0.00 | 1 | 1010.2 |
| 20260503025315 | 12 | 286 | 14.5 | 25.7 | 0.00 | 0.00 | 0.00 | 1 | 1010.2 |
| 20260503025214 | 12 | 283 | 14.5 | 25.7 | 0.00 | 0.00 | 0.00 | 1 | 1010.3 |
| 20260503025110 | 12 | 301 | 14.5 | 25.7 | 0.00 | 0.00 | 0.00 | 1 | 1010.2 |
| 20260503025010 | 12 | 295 | 14.5 | 25.7 | 0.00 | 0.00 | 0.00 | 1 | 1010.2 |
| 20260503024909 | 12 | 281 | 14.5 | 25.7 | 0.00 | 0.00 | 0.00 | 1 | 1010.2 |
| 20260503024809 | 12 | 270 | 14.5 | 22.5 | 0.00 | 0.00 | 0.00 | 1 | 1010.2 |
| 20260503024709 | 12 | 241 | 14.5 | 22.5 | 0.00 | 0.00 | 0.00 | 1 | 1010.2 |
| 20260503024606 | 12 | 265 | 14.5 | 22.5 | 0.00 | 0.00 | 0.00 | 1 | 1010.2 |
| 20260503024505 | 12 | 271 | 12.9 | 22.5 | 0.00 | 0.00 | 0.00 | 1 | 1010.2 |
| 20260503024405 | 12 | 258 | 12.9 | 22.5 | 0.00 | 0.00 | 0.00 | 1 | 1010.2 |
| 20260503024305 | 12 | 281 | 14.5 | 22.5 | 0.00 | 0.00 | 0.00 | 1 | 1010.3 |
| 20260503024203 | 12 | 274 | 14.5 | 22.5 | 0.00 | 0.00 | 0.00 | 1 | 1010.2 |
| 20260503024057 | 12 | 285 | 12.9 | 22.5 | 0.00 | 0.00 | 0.00 | 1 | 1010.2 |
| 20260503023957 | 12 | 281 | 14.5 | 22.5 | 0.00 | 0.00 | 0.00 | 1 | 1010.2 |
| 20260503023913 | 12 | 306 | 14.5 | 22.5 | 0.00 | 0.00 | 0.00 | 1 | 1010.2 |
| 20260503023909 | 12 | 259 | 14.5 | 22.5 | 0.00 | 0.00 | 0.00 | 1 | 1010.2 |
| 20260503023904 | 12 | 282 | 14.5 | 22.5 | 0.00 | 0.00 | 0.00 | 1 | 1010.2 |
| 20260503023451 | 12 | 298 | 12.9 | 22.5 | 0.00 | 0.00 | 0.00 | 1 | 1010.2 |
| 20260503023351 | 12 | 281 | 12.9 | 22.5 | 0.00 | 0.00 | 0.00 | 1 | 1010.2 |
| 20260503023251 | 12 | 264 | 12.9 | 22.5 | 0.00 | 0.00 | 0.00 | 1 | 1010.3 |
| 20260503023151 | 12 | 278 | 12.9 | 22.5 | 0.00 | 0.00 | 0.00 | 1 | 1010.2 |
| 20260503023046 | 12 | 273 | 12.9 | 22.5 | 0.00 | 0.00 | 0.00 | 1 | 1010.2 |
| 20260503022945 | 12 | 264 | 14.5 | 22.5 | 0.00 | 0.00 | 0.00 | 1 | 1010.2 |
| 20260503022845 | 12 | 311 | 14.5 | 24.1 | 0.00 | 0.00 | 0.00 | 1 | 1010.3 |
| 20260503022754 | 12 | 260 | 14.5 | 24.1 | 0.00 | 0.00 | 0.00 | 1 | 1010.3 |
| 20260503022749 | 12 | 306 | 14.5 | 24.1 | 0.00 | 0.00 | 0.00 | 1 | 1010.3 |
| 20260503022539 | 12 | 285 | 12.9 | 24.1 | 0.00 | 0.00 | 0.00 | 1 | 1010.3 |
| 20260503022439 | 12 | 254 | 12.9 | 24.1 | 0.00 | 0.00 | 0.00 | 1 | 1010.2 |
| 20260503022339 | 12 | 252 | 12.9 | 24.1 | 0.00 | 0.00 | 0.00 | 1 | 1010.3 |
| 20260503022239 | 12 | 288 | 12.9 | 24.1 | 0.00 | 0.00 | 0.00 | 1 | 1010.2 |
| 20260503022139 | 12 | 240 | 12.9 | 24.1 | 0.00 | 0.00 | 0.00 | 1 | 1010.2 |
| 20260503022033 | 12 | 269 | 12.9 | 24.1 | 0.00 | 0.00 | 0.00 | 1 | 1010.2 |
| 20260503021933 | 12 | 260 | 12.9 | 24.1 | 0.00 | 0.00 | 0.00 | 1 | 1010.3 |
| 20260503021833 | 12 | 265 | 12.9 | 22.5 | 0.00 | 0.00 | 0.00 | 1 | 1010.2 |
| 20260503021749 | 12 | 248 | 14.5 | 22.5 | 0.00 | 0.00 | 0.00 | 1 | 1010.2 |
| 20260503021745 | 12 | 292 | 14.5 | 22.5 | 0.00 | 0.00 | 0.00 | 1 | 1010.3 |
| 20260503021532 | 12 | 250 | 14.5 | 22.5 | 0.00 | 0.00 | 0.00 | 1 | 1010.2 |
| 20260503021328 | 12 | 271 | 14.5 | 22.5 | 0.00 | 0.00 | 0.00 | 1 | 1010.2 |
| 20260503021227 | 12 | 213 | 14.5 | 22.5 | 0.00 | 0.00 | 0.00 | 1 | 1010.3 |
| 20260503021127 | 12 | 253 | 14.5 | 22.5 | 0.00 | 0.00 | 0.00 | 1 | 1010.3 |
| 20260503021023 | 12 | 264 | 14.5 | 22.5 | 0.00 | 0.00 | 0.00 | 1 | 1010.3 |
| 20260503020924 | 12 | 238 | 14.5 | 24.1 | 0.00 | 0.00 | 0.00 | 1 | 1010.3 |
| 20260503020824 | 12 | 242 | 14.5 | 24.1 | 0.00 | 0.00 | 0.00 | 1 | 1010.4 |
| 20260503020724 | 12 | 242 | 12.9 | 24.1 | 0.00 | 0.00 | 0.00 | 1 | 1010.3 |
| 20260503020620 | 12 | 262 | 12.9 | 24.1 | 0.00 | 0.00 | 0.00 | 1 | 1010.4 |
| 20260503020515 | 12 | 258 | 12.9 | 24.1 | 0.00 | 0.00 | 0.00 | 1 | 1010.4 |
| 20260503020415 | 12 | 253 | 12.9 | 24.1 | 0.00 | 0.00 | 0.00 | 1 | 1010.4 |
| 20260503020316 | 12 | 216 | 12.9 | 24.1 | 0.00 | 0.00 | 0.00 | 1 | 1010.4 |
| 20260503020216 | 12 | 209 | 12.9 | 24.1 | 0.00 | 0.00 | 0.00 | 1 | 1010.4 |
| 20260503020118 | 12 | 238 | 12.9 | 24.1 | 0.00 | 0.00 | 0.00 | 1 | 1010.4 |
| 20260503020113 | 12 | 246 | 12.9 | 24.1 | 0.00 | 0.00 | 0.00 | 1 | 1010.4 |
| 20260503015909 | 12 | 255 | 12.9 | 24.1 | 0.00 | 0.00 | 0.00 | 1 | 1010.4 |
| 20260503015809 | 12 | 243 | 11.3 | 24.1 | 0.00 | 0.00 | 0.00 | 1 | 1010.4 |
| 20260503015709 | 12 | 276 | 12.9 | 24.1 | 0.00 | 0.00 | 0.00 | 1 | 1010.4 |
| 20260503015609 | 12 | 261 | 12.9 | 24.1 | 0.00 | 0.00 | 0.00 | 1 | 1010.4 |
| 20260503015503 | 12 | 243 | 12.9 | 24.1 | 0.00 | 0.00 | 0.00 | 1 | 1010.4 |
| 20260503015411 | 12 | 230 | 12.9 | 22.5 | 0.00 | 0.00 | 0.00 | 1 | 1010.4 |
| 20260503015407 | 12 | 270 | 12.9 | 22.5 | 0.00 | 0.00 | 0.00 | 1 | 1010.4 |
| 20260503015204 | 12 | 311 | 12.9 | 22.5 | 0.00 | 0.00 | 0.00 | 1 | 1010.5 |
| 20260503015102 | 12 | 291 | 12.9 | 22.5 | 0.00 | 0.00 | 0.00 | 1 | 1010.5 |
| 20260503014957 | 12 | 258 | 12.9 | 22.5 | 0.00 | 0.00 | 0.00 | 1 | 1010.4 |
| 20260503014906 | 12 | 217 | 12.9 | 22.5 | 0.00 | 0.00 | 0.00 | 1 | 1010.5 |
| 20260503014901 | 12 | 294 | 12.9 | 22.5 | 0.00 | 0.00 | 0.00 | 1 | 1010.5 |
| 20260503014657 | 12 | 236 | 12.9 | 22.5 | 0.00 | 0.00 | 0.00 | 1 | 1010.4 |
| 20260503014557 | 12 | 264 | 12.9 | 22.5 | 0.00 | 0.00 | 0.00 | 1 | 1010.4 |
| 20260503014453 | 12 | 246 | 12.9 | 22.5 | 0.00 | 0.00 | 0.00 | 1 | 1010.4 |
| 20260503014353 | 12 | 279 | 12.9 | 22.5 | 0.00 | 0.00 | 0.00 | 1 | 1010.4 |
| 20260503014254 | 12 | 230 | 12.9 | 22.5 | 0.00 | 0.00 | 0.00 | 1 | 1010.4 |
| 20260503014153 | 12 | 280 | 12.9 | 22.5 | 0.00 | 0.00 | 0.00 | 1 | 1010.4 |
| 20260503014050 | 12 | 280 | 12.9 | 22.5 | 0.00 | 0.00 | 0.00 | 1 | 1010.5 |
| 20260503013946 | 12 | 259 | 12.9 | 22.5 | 0.00 | 0.00 | 0.00 | 1 | 1010.5 |
| 20260503013846 | 12 | 252 | 12.9 | 22.5 | 0.00 | 0.00 | 0.00 | 1 | 1010.5 |
| 20260503013745 | 12 | 256 | 12.9 | 25.7 | 0.00 | 0.00 | 0.00 | 1 | 1010.5 |
| 20260503013645 | 12 | 257 | 14.5 | 25.7 | 0.00 | 0.00 | 0.00 | 1 | 1010.5 |
| 20260503013545 | 12 | 274 | 14.5 | 25.7 | 0.00 | 0.00 | 0.00 | 1 | 1010.5 |
| 20260503013439 | 12 | 259 | 14.5 | 25.7 | 0.00 | 0.00 | 0.00 | 1 | 1010.5 |
| 20260503013339 | 12 | 273 | 14.5 | 25.7 | 0.00 | 0.00 | 0.00 | 1 | 1010.6 |
| 20260503013239 | 12 | 277 | 14.5 | 25.7 | 0.00 | 0.00 | 0.00 | 1 | 1010.5 |
| 20260503013139 | 12 | 280 | 14.5 | 25.7 | 0.00 | 0.00 | 0.00 | 1 | 1010.6 |
| 20260503013039 | 12 | 252 | 14.5 | 25.7 | 0.00 | 0.00 | 0.00 | 1 | 1010.5 |
| 20260503012935 | 12 | 262 | 14.5 | 25.7 | 0.00 | 0.00 | 0.00 | 1 | 1010.6 |
| 20260503012834 | 12 | 283 | 14.5 | 25.7 | 0.00 | 0.00 | 0.00 | 1 | 1010.6 |
| 20260503012734 | 12 | 281 | 14.5 | 25.7 | 0.00 | 0.00 | 0.00 | 1 | 1010.6 |
| 20260503012633 | 12 | 275 | 14.5 | 25.7 | 0.00 | 0.00 | 0.00 | 1 | 1010.6 |
| 20260503012533 | 12 | 263 | 14.5 | 25.7 | 0.00 | 0.00 | 0.00 | 1 | 1010.6 |
| 20260503012428 | 12 | 281 | 14.5 | 25.7 | 0.00 | 0.00 | 0.00 | 1 | 1010.6 |
| 20260503012327 | 12 | 283 | 14.5 | 25.7 | 0.00 | 0.00 | 0.00 | 1 | 1010.6 |
| 20260503012227 | 12 | 232 | 12.9 | 25.7 | 0.00 | 0.00 | 0.00 | 1 | 1010.6 |
| 20260503012127 | 12 | 290 | 14.5 | 24.1 | 0.00 | 0.00 | 0.00 | 1 | 1010.6 |
| 20260503012027 | 12 | 284 | 14.5 | 27.4 | 0.00 | 0.00 | 0.00 | 1 | 1010.6 |
| 20260503011924 | 12 | 297 | 14.5 | 27.4 | 0.00 | 0.00 | 0.00 | 1 | 1010.6 |
| 20260503011821 | 12 | 267 | 14.5 | 27.4 | 0.00 | 0.00 | 0.00 | 1 | 1010.6 |
| 20260503011721 | 12 | 265 | 14.5 | 27.4 | 0.00 | 0.00 | 0.00 | 1 | 1010.6 |
| 20260503011621 | 12 | 299 | 14.5 | 27.4 | 0.00 | 0.00 | 0.00 | 1 | 1010.6 |
| 20260503011521 | 12 | 240 | 14.5 | 27.4 | 0.00 | 0.00 | 0.00 | 1 | 1010.6 |
| 20260503011415 | 12 | 261 | 14.5 | 27.4 | 0.00 | 0.00 | 0.00 | 1 | 1010.6 |
| 20260503011315 | 12 | 238 | 14.5 | 27.4 | 0.00 | 0.00 | 0.00 | 1 | 1010.6 |
| 20260503011215 | 12 | 279 | 14.5 | 27.4 | 0.00 | 0.00 | 0.00 | 1 | 1010.6 |
| 20260503011115 | 12 | 286 | 12.9 | 24.1 | 0.00 | 0.00 | 0.00 | 1 | 1010.6 |
| 20260503011015 | 12 | 265 | 12.9 | 22.5 | 0.00 | 0.00 | 0.00 | 1 | 1010.6 |
| 20260503010910 | 12 | 257 | 12.9 | 22.5 | 0.00 | 0.00 | 0.00 | 1 | 1010.6 |
| 20260503010809 | 12 | 228 | 12.9 | 22.5 | 0.00 | 0.00 | 0.00 | 1 | 1010.6 |
| 20260503010718 | 12 | 271 | 12.9 | 25.7 | 0.00 | 0.00 | 0.00 | 1 | 1010.6 |
| 20260503010714 | 12 | 255 | 14.5 | 22.5 | 0.00 | 0.00 | 0.00 | 1 | 1010.7 |
| 20260503010509 | 12 | 286 | 12.9 | 25.7 | 0.00 | 0.00 | 0.00 | 1 | 1010.6 |
| 20260503010403 | 12 | 327 | 12.9 | 25.7 | 0.00 | 0.00 | 0.00 | 1 | 1010.7 |
| 20260503010302 | 12 | 315 | 12.9 | 25.7 | 0.00 | 0.00 | 0.00 | 1 | 1010.6 |
| 20260503010204 | 12 | 251 | 14.5 | 25.7 | 0.00 | 0.00 | 0.00 | 1 | 1010.7 |
| 20260503010103 | 12 | 294 | 14.5 | 25.7 | 0.00 | 0.00 | 0.00 | 1 | 1010.7 |
| 20260503010003 | 12 | 303 | 14.5 | 25.7 | 0.00 | 0.00 | 0.00 | 1 | 1010.6 |
| 20260503005857 | 12 | 260 | 14.5 | 25.7 | 0.00 | 0.00 | 0.00 | 1 | 1010.6 |
| 20260503005757 | 12 | 273 | 12.9 | 25.7 | 0.00 | 0.00 | 0.00 | 1 | 1010.6 |
| 20260503005657 | 13 | 254 | 12.9 | 25.7 | 0.00 | 0.00 | 0.00 | 1 | 1010.7 |
| 20260503005557 | 13 | 258 | 12.9 | 25.7 | 0.00 | 0.00 | 0.00 | 1 | 1010.6 |
| 20260503005457 | 13 | 259 | 12.9 | 25.7 | 0.00 | 0.00 | 0.00 | 1 | 1010.7 |
| 20260503005351 | 13 | 262 | 12.9 | 24.1 | 0.00 | 0.00 | 0.00 | 1 | 1010.7 |
| 20260503005251 | 13 | 246 | 12.9 | 24.1 | 0.00 | 0.00 | 0.00 | 1 | 1010.7 |
| 20260503005151 | 13 | 246 | 12.9 | 24.1 | 0.00 | 0.00 | 0.00 | 1 | 1010.7 |
| 20260503005059 | 12 | 277 | 14.5 | 24.1 | 0.00 | 0.00 | 0.00 | 1 | 1010.7 |
| 20260503005055 | 12 | 259 | 14.5 | 24.1 | 0.00 | 0.00 | 0.00 | 1 | 1010.7 |
| 20260503004845 | 12 | 275 | 14.5 | 24.1 | 0.00 | 0.00 | 0.00 | 1 | 1010.7 |
| 20260503004805 | 12 | 251 | 14.5 | 25.7 | 0.00 | 0.00 | 0.00 | 1 | 1010.7 |
| 20260503004801 | 12 | 263 | 14.5 | 24.1 | 0.00 | 0.00 | 0.00 | 1 | 1010.7 |
| 20260503004653 | 12 | 229 | 14.5 | 24.1 | 0.00 | 0.00 | 0.00 | 1 | 1010.7 |
| 20260503004343 | 13 | 264 | 14.5 | 25.7 | 0.00 | 0.00 | 0.00 | 1 | 1010.7 |
| 20260503004243 | 12 | 274 | 14.5 | 25.7 | 0.00 | 0.00 | 0.00 | 1 | 1010.7 |
| 20260503004143 | 13 | 233 | 14.5 | 25.7 | 0.00 | 0.00 | 0.00 | 1 | 1010.7 |
| 20260503004043 | 13 | 238 | 12.9 | 25.7 | 0.00 | 0.00 | 0.00 | 1 | 1010.7 |
| 20260503003943 | 13 | 248 | 12.9 | 25.7 | 0.00 | 0.00 | 0.00 | 1 | 1010.7 |
| 20260503003843 | 13 | 252 | 12.9 | 25.7 | 0.00 | 0.00 | 0.00 | 1 | 1010.7 |
| 20260503003743 | 13 | 261 | 12.9 | 25.7 | 0.00 | 0.00 | 0.00 | 1 | 1010.7 |
| 20260503003643 | 13 | 245 | 12.9 | 25.7 | 0.00 | 0.00 | 0.00 | 1 | 1010.7 |
| 20260503003543 | 13 | 228 | 12.9 | 22.5 | 0.00 | 0.00 | 0.00 | 1 | 1010.7 |
| 20260503003442 | 13 | 221 | 12.9 | 24.1 | 0.00 | 0.00 | 0.00 | 1 | 1010.7 |
| 20260503003355 | 13 | 281 | 12.9 | 24.1 | 0.00 | 0.00 | 0.00 | 1 | 1010.7 |
| 20260503003247 | 13 | 290 | 12.9 | 24.1 | 0.00 | 0.00 | 0.00 | 1 | 1010.7 |
| 20260503003043 | 13 | 261 | 14.5 | 24.1 | 0.00 | 0.00 | 0.00 | 1 | 1010.7 |
| 20260503002943 | 13 | 289 | 14.5 | 24.1 | 0.00 | 0.00 | 0.00 | 1 | 1010.7 |
| 20260503002843 | 13 | 265 | 14.5 | 24.1 | 0.00 | 0.00 | 0.00 | 1 | 1010.7 |
| 20260503002743 | 13 | 239 | 14.5 | 24.1 | 0.00 | 0.00 | 0.00 | 1 | 1010.8 |
| 20260503002636 | 13 | 252 | 12.9 | 24.1 | 0.00 | 0.00 | 0.00 | 1 | 1010.8 |
| 20260503002536 | 13 | 273 | 12.9 | 24.1 | 0.00 | 0.00 | 0.00 | 1 | 1010.8 |
| 20260503002437 | 13 | 281 | 12.9 | 24.1 | 0.00 | 0.00 | 0.00 | 1 | 1010.8 |
| 20260503002338 | 13 | 263 | 12.9 | 24.1 | 0.00 | 0.00 | 0.00 | 1 | 1010.8 |
| 20260503002237 | 13 | 279 | 12.9 | 24.1 | 0.00 | 0.00 | 0.00 | 1 | 1010.8 |
| 20260503002131 | 13 | 291 | 12.9 | 22.5 | 0.00 | 0.00 | 0.00 | 1 | 1010.8 |
| 20260503002031 | 13 | 244 | 12.9 | 22.5 | 0.00 | 0.00 | 0.00 | 1 | 1010.8 |
| 20260503001931 | 13 | 296 | 12.9 | 22.5 | 0.00 | 0.00 | 0.00 | 1 | 1010.8 |
| 20260503001831 | 13 | 305 | 14.5 | 22.5 | 0.00 | 0.00 | 0.00 | 1 | 1010.9 |
| 20260503001731 | 13 | 262 | 14.5 | 24.1 | 0.00 | 0.00 | 0.00 | 1 | 1010.8 |
| 20260503001627 | 13 | 269 | 16.1 | 24.1 | 0.00 | 0.00 | 0.00 | 1 | 1010.9 |
| 20260503001536 | 13 | 242 | 14.5 | 24.1 | 0.00 | 0.00 | 0.00 | 1 | 1010.9 |
| 20260503001531 | 13 | 258 | 14.5 | 24.1 | 0.00 | 0.00 | 0.00 | 1 | 1010.9 |
| 20260503001327 | 13 | 276 | 14.5 | 24.1 | 0.00 | 0.00 | 0.00 | 1 | 1010.9 |
| 20260503001227 | 13 | 247 | 14.5 | 24.1 | 0.00 | 0.00 | 0.00 | 1 | 1010.9 |
| 20260503001127 | 13 | 260 | 16.1 | 24.1 | 0.00 | 0.00 | 0.00 | 1 | 1010.9 |
| 20260503001027 | 13 | 259 | 16.1 | 24.1 | 0.00 | 0.00 | 0.00 | 1 | 1010.9 |
| 20260503000935 | 13 | 244 | 16.1 | 25.7 | 0.00 | 0.00 | 0.00 | 1 | 1010.9 |
| 20260503000930 | 13 | 243 | 16.1 | 25.7 | 0.00 | 0.00 | 0.00 | 1 | 1010.9 |
| 20260503000727 | 13 | 254 | 16.1 | 25.7 | 0.00 | 0.00 | 0.00 | 1 | 1010.9 |
| 20260503000627 | 13 | 272 | 14.5 | 25.7 | 0.00 | 0.00 | 0.00 | 1 | 1010.9 |
| 20260503000528 | 13 | 244 | 14.5 | 25.7 | 0.00 | 0.00 | 0.00 | 1 | 1010.9 |
| 20260503000430 | 13 | 244 | 14.5 | 25.7 | 0.00 | 0.00 | 0.00 | 1 | 1010.8 |
| 20260503000327 | 13 | 233 | 14.5 | 25.7 | 0.00 | 0.00 | 0.00 | 1 | 1010.8 |
| 20260503000227 | 13 | 245 | 14.5 | 25.7 | 0.00 | 0.00 | 0.00 | 1 | 1010.8 |
| 20260503000127 | 13 | 257 | 16.1 | 25.7 | 0.00 | 0.00 | 0.00 | 1 | 1010.9 |
| 20260503000027 | 13 | 279 | 14.5 | 25.7 | 0.00 | 0.00 | 0.00 | 1 | 1010.9 |
| 20260502235922 | 13 | 248 | 14.5 | 24.1 | 0.00 | 0.00 | 0.00 | 1 | 1010.9 |
| 20260502235831 | 13 | 227 | 14.5 | 24.1 | 0.00 | 0.00 | 0.00 | 1 | 1010.9 |
| 20260502235827 | 13 | 279 | 14.5 | 24.1 | 0.00 | 0.00 | 0.00 | 1 | 1010.9 |
| 20260502235622 | 13 | 306 | 16.1 | 24.1 | 0.00 | 0.00 | 0.00 | 1 | 1010.9 |
| 20260502235523 | 13 | 315 | 16.1 | 24.1 | 0.00 | 0.00 | 0.00 | 1 | 1010.9 |
| 20260502235422 | 13 | 274 | 16.1 | 24.1 | 0.00 | 0.00 | 0.00 | 1 | 1010.9 |
| 20260502235323 | 13 | 275 | 16.1 | 24.1 | 0.00 | 0.00 | 0.00 | 1 | 1011.0 |
| 20260502235223 | 13 | 248 | 16.1 | 25.7 | 0.00 | 0.00 | 0.00 | 1 | 1010.9 |
| 20260502235123 | 13 | 265 | 16.1 | 25.7 | 0.00 | 0.00 | 0.00 | 1 | 1010.9 |
| 20260502235023 | 13 | 242 | 16.1 | 25.7 | 0.00 | 0.00 | 0.00 | 1 | 1010.9 |
| 20260502234923 | 13 | 281 | 16.1 | 25.7 | 0.00 | 0.00 | 0.00 | 1 | 1010.9 |
| 20260502234823 | 13 | 288 | 16.1 | 25.7 | 0.00 | 0.00 | 0.00 | 1 | 1010.9 |
| 20260502234723 | 13 | 248 | 16.1 | 25.7 | 0.00 | 0.00 | 0.00 | 1 | 1010.9 |
| 20260502234622 | 13 | 257 | 16.1 | 25.7 | 0.00 | 0.00 | 0.00 | 1 | 1010.9 |
| 20260502234522 | 13 | 261 | 16.1 | 25.7 | 0.00 | 0.00 | 0.00 | 1 | 1011.0 |
| 20260502234423 | 13 | 212 | 17.7 | 25.7 | 0.00 | 0.00 | 0.00 | 1 | 1010.9 |
| 20260502234323 | 13 | 272 | 17.7 | 25.7 | 0.00 | 0.00 | 0.00 | 1 | 1011.0 |
| 20260502234223 | 13 | 269 | 17.7 | 25.7 | 0.00 | 0.00 | 0.00 | 1 | 1011.0 |
| 20260502234123 | 13 | 234 | 17.7 | 27.4 | 0.00 | 0.00 | 0.00 | 1 | 1011.0 |
| 20260502234023 | 13 | 217 | 17.7 | 27.4 | 0.00 | 0.00 | 0.00 | 1 | 1011.0 |
| 20260502233922 | 13 | 248 | 17.7 | 27.4 | 0.00 | 0.00 | 0.00 | 1 | 1011.0 |
| 20260502233823 | 13 | 248 | 17.7 | 27.4 | 0.00 | 0.00 | 0.00 | 1 | 1011.0 |
| 20260502233723 | 13 | 240 | 17.7 | 27.4 | 0.00 | 0.00 | 0.00 | 1 | 1011.0 |
| 20260502233623 | 13 | 230 | 17.7 | 27.4 | 0.00 | 0.00 | 0.00 | 1 | 1011.0 |
| 20260502233523 | 13 | 239 | 17.7 | 27.4 | 0.00 | 0.00 | 0.00 | 1 | 1011.0 |
| 20260502233423 | 13 | 245 | 17.7 | 27.4 | 0.00 | 0.00 | 0.00 | 1 | 1011.0 |
| 20260502233323 | 13 | 265 | 17.7 | 27.4 | 0.00 | 0.00 | 0.00 | 1 | 1011.1 |
| 20260502233223 | 13 | 238 | 17.7 | 27.4 | 0.00 | 0.00 | 0.00 | 1 | 1011.1 |
| 20260502233122 | 13 | 225 | 16.1 | 25.7 | 0.00 | 0.00 | 0.00 | 1 | 1011.0 |
| 20260502233017 | 13 | 257 | 17.7 | 25.7 | 0.00 | 0.00 | 0.00 | 1 | 1011.1 |
| 20260502232917 | 13 | 229 | 17.7 | 24.1 | 0.00 | 0.00 | 0.00 | 1 | 1011.1 |
| 20260502232817 | 13 | 244 | 16.1 | 24.1 | 0.00 | 0.00 | 0.00 | 1 | 1011.1 |
| 20260502232716 | 13 | 254 | 16.1 | 24.1 | 0.00 | 0.00 | 0.00 | 1 | 1011.2 |
| 20260502232617 | 13 | 240 | 16.1 | 24.1 | 0.00 | 0.00 | 0.00 | 1 | 1011.1 |
| 20260502232517 | 13 | 238 | 16.1 | 24.1 | 0.00 | 0.00 | 0.00 | 1 | 1011.2 |
| 20260502232417 | 13 | 254 | 16.1 | 24.1 | 0.00 | 0.00 | 0.00 | 1 | 1011.1 |
| 20260502232317 | 13 | 251 | 16.1 | 24.1 | 0.00 | 0.00 | 0.00 | 1 | 1011.2 |
| 20260502232217 | 13 | 252 | 16.1 | 24.1 | 0.00 | 0.00 | 0.00 | 1 | 1011.2 |
| 20260502232117 | 13 | 220 | 16.1 | 24.1 | 0.00 | 0.00 | 0.00 | 1 | 1011.2 |
| 20260502232016 | 13 | 235 | 16.1 | 24.1 | 0.00 | 0.00 | 0.00 | 1 | 1011.2 |
| 20260502231917 | 13 | 225 | 16.1 | 24.1 | 0.00 | 0.00 | 0.00 | 1 | 1011.2 |
| 20260502231815 | 13 | 239 | 16.1 | 24.1 | 0.00 | 0.00 | 0.00 | 1 | 1011.2 |
| 20260502231715 | 13 | 242 | 16.1 | 24.1 | 0.00 | 0.00 | 0.00 | 1 | 1011.3 |
| 20260502231615 | 13 | 256 | 16.1 | 24.1 | 0.00 | 0.00 | 0.00 | 1 | 1011.2 |
| 20260502231515 | 13 | 234 | 16.1 | 25.7 | 0.00 | 0.00 | 0.00 | 1 | 1011.3 |
| 20260502231415 | 13 | 259 | 16.1 | 25.7 | 0.00 | 0.00 | 0.00 | 1 | 1011.3 |
| 20260502231315 | 13 | 238 | 16.1 | 25.7 | 0.00 | 0.00 | 0.00 | 1 | 1011.3 |
| 20260502231215 | 13 | 249 | 16.1 | 25.7 | 0.00 | 0.00 | 0.00 | 1 | 1011.3 |
| 20260502231124 | 13 | 213 | 16.1 | 25.7 | 0.00 | 0.00 | 0.00 | 1 | 1011.3 |
| 20260502231119 | 13 | 247 | 16.1 | 25.7 | 0.00 | 0.00 | 0.00 | 1 | 1011.3 |
| 20260502230915 | 13 | 237 | 16.1 | 25.7 | 0.00 | 0.00 | 0.00 | 1 | 1011.3 |
| 20260502230814 | 13 | 241 | 16.1 | 25.7 | 0.00 | 0.00 | 0.00 | 1 | 1011.4 |
| 20260502230715 | 13 | 271 | 16.1 | 25.7 | 0.00 | 0.00 | 0.00 | 1 | 1011.4 |
| 20260502230624 | 13 | 238 | 14.5 | 24.1 | 0.00 | 0.00 | 0.00 | 1 | 1011.4 |
| 20260502230620 | 13 | 269 | 16.1 | 25.7 | 0.00 | 0.00 | 0.00 | 1 | 1011.4 |
| 20260502230415 | 13 | 230 | 14.5 | 24.1 | 0.00 | 0.00 | 0.00 | 1 | 1011.4 |
| 20260502230315 | 13 | 240 | 14.5 | 24.1 | 0.00 | 0.00 | 0.00 | 1 | 1011.4 |
| 20260502230215 | 13 | 253 | 14.5 | 24.1 | 0.00 | 0.00 | 0.00 | 1 | 1011.4 |
| 20260502230115 | 13 | 255 | 12.9 | 22.5 | 0.00 | 0.00 | 0.00 | 1 | 1011.4 |
| 20260502230015 | 13 | 240 | 14.5 | 22.5 | 0.00 | 0.00 | 0.00 | 1 | 1011.4 |
| 20260502225911 | 13 | 227 | 14.5 | 22.5 | 0.00 | 0.00 | 0.00 | 1 | 1011.5 |
| 20260502225811 | 13 | 244 | 12.9 | 22.5 | 0.00 | 0.00 | 0.00 | 1 | 1011.5 |
| 20260502225719 | 13 | 277 | 12.9 | 25.7 | 0.00 | 0.00 | 0.00 | 1 | 1011.5 |
| 20260502225715 | 13 | 218 | 14.5 | 25.7 | 0.00 | 0.00 | 0.00 | 1 | 1011.5 |
| 20260502225511 | 13 | 240 | 14.5 | 25.7 | 0.00 | 0.00 | 0.00 | 1 | 1011.6 |
| 20260502225411 | 13 | 279 | 14.5 | 25.7 | 0.00 | 0.00 | 0.00 | 1 | 1011.6 |
| 20260502225311 | 13 | 269 | 14.5 | 25.7 | 0.00 | 0.00 | 0.00 | 1 | 1011.6 |
| 20260502225211 | 13 | 279 | 14.5 | 25.7 | 0.00 | 0.00 | 0.00 | 1 | 1011.6 |
| 20260502225111 | 13 | 252 | 14.5 | 25.7 | 0.00 | 0.00 | 0.00 | 1 | 1011.7 |
| 20260502225032 | 13 | 223 | 14.5 | 25.7 | 0.00 | 0.00 | 0.00 | 1 | 1011.7 |
| 20260502225028 | 13 | 251 | 14.5 | 25.7 | 0.00 | 0.00 | 0.00 | 1 | 1011.7 |
| 20260502224920 | 13 | 272 | 14.5 | 25.7 | 0.00 | 0.00 | 0.00 | 1 | 1011.7 |
| 20260502224611 | 13 | 279 | 14.5 | 25.7 | 0.00 | 0.00 | 0.00 | 1 | 1011.7 |
| 20260502224511 | 13 | 279 | 14.5 | 25.7 | 0.00 | 0.00 | 0.00 | 1 | 1011.8 |
| 20260502224411 | 13 | 232 | 14.5 | 25.7 | 0.00 | 0.00 | 0.00 | 1 | 1011.7 |
| 20260502224310 | 13 | 252 | 14.5 | 25.7 | 0.00 | 0.00 | 0.00 | 1 | 1011.8 |
| 20260502224211 | 13 | 285 | 14.5 | 27.4 | 0.00 | 0.00 | 0.00 | 1 | 1011.8 |
| 20260502224111 | 13 | 242 | 14.5 | 27.4 | 0.00 | 0.00 | 0.00 | 1 | 1011.7 |
| 20260502224007 | 13 | 216 | 14.5 | 27.4 | 0.00 | 0.00 | 0.00 | 1 | 1011.8 |
| 20260502223907 | 13 | 296 | 16.1 | 27.4 | 0.00 | 0.00 | 0.00 | 1 | 1011.8 |
| 20260502223806 | 13 | 281 | 16.1 | 27.4 | 0.00 | 0.00 | 0.00 | 1 | 1011.8 |
| 20260502223707 | 13 | 273 | 16.1 | 27.4 | 0.00 | 0.00 | 0.00 | 1 | 1011.8 |
| 20260502223607 | 13 | 231 | 14.5 | 27.4 | 0.00 | 0.00 | 0.00 | 1 | 1011.8 |
| 20260502223507 | 13 | 233 | 14.5 | 27.4 | 0.00 | 0.00 | 0.00 | 1 | 1011.8 |
| 20260502223407 | 13 | 245 | 14.5 | 27.4 | 0.00 | 0.00 | 0.00 | 1 | 1011.8 |
| 20260502223306 | 13 | 232 | 12.9 | 27.4 | 0.00 | 0.00 | 0.00 | 1 | 1011.9 |
| 20260502223207 | 13 | 250 | 12.9 | 24.1 | 0.00 | 0.00 | 0.00 | 1 | 1011.8 |
| 20260502223107 | 13 | 265 | 12.9 | 24.1 | 0.00 | 0.00 | 0.00 | 1 | 1011.8 |
| 20260502223007 | 13 | 267 | 12.9 | 22.5 | 0.00 | 0.00 | 0.00 | 1 | 1011.8 |
| 20260502222907 | 13 | 277 | 12.9 | 22.5 | 0.00 | 0.00 | 0.00 | 1 | 1011.8 |
| 20260502222806 | 13 | 259 | 12.9 | 22.5 | 0.00 | 0.00 | 0.00 | 1 | 1011.9 |
| 20260502222719 | 13 | 260 | 12.9 | 22.5 | 0.00 | 0.00 | 0.00 | 1 | 1011.9 |
| 20260502222611 | 13 | 255 | 14.5 | 22.5 | 0.00 | 0.00 | 0.00 | 1 | 1011.9 |
| 20260502222407 | 13 | 219 | 16.1 | 27.4 | 0.00 | 0.00 | 0.00 | 1 | 1012.0 |
| 20260502222307 | 13 | 257 | 16.1 | 27.4 | 0.00 | 0.00 | 0.00 | 1 | 1012.0 |
| 20260502222207 | 13 | 205 | 16.1 | 27.4 | 0.00 | 0.00 | 0.00 | 1 | 1012.0 |
| 20260502222115 | 13 | 248 | 16.1 | 27.4 | 0.00 | 0.00 | 0.00 | 1 | 1012.0 |
| 20260502222007 | 13 | 282 | 16.1 | 27.4 | 0.00 | 0.00 | 0.00 | 1 | 1012.0 |
| 20260502221803 | 13 | 223 | 16.1 | 27.4 | 0.00 | 0.00 | 0.00 | 1 | 1012.1 |
| 20260502221703 | 13 | 258 | 16.1 | 27.4 | 0.00 | 0.00 | 0.00 | 1 | 1012.0 |
| 20260502221603 | 13 | 240 | 16.1 | 27.4 | 0.00 | 0.00 | 0.00 | 1 | 1012.1 |
| 20260502221503 | 13 | 237 | 16.1 | 27.4 | 0.00 | 0.00 | 0.00 | 1 | 1012.1 |
| 20260502221403 | 13 | 244 | 16.1 | 25.7 | 0.00 | 0.00 | 0.00 | 1 | 1012.2 |
| 20260502221303 | 13 | 234 | 14.5 | 24.1 | 0.00 | 0.00 | 0.00 | 1 | 1012.1 |
| 20260502221202 | 13 | 260 | 16.1 | 24.1 | 0.00 | 0.00 | 0.00 | 1 | 1012.1 |
| 20260502221102 | 13 | 240 | 16.1 | 24.1 | 0.00 | 0.00 | 0.00 | 1 | 1012.2 |
| 20260502221003 | 13 | 269 | 16.1 | 22.5 | 0.00 | 0.00 | 0.00 | 1 | 1012.1 |
| 20260502220903 | 13 | 273 | 16.1 | 22.5 | 0.00 | 0.00 | 0.00 | 1 | 1012.2 |
| 20260502220803 | 13 | 259 | 16.1 | 22.5 | 0.00 | 0.00 | 0.00 | 1 | 1012.2 |
| 20260502220703 | 13 | 254 | 16.1 | 22.5 | 0.00 | 0.00 | 0.00 | 1 | 1012.2 |
| 20260502220602 | 13 | 261 | 16.1 | 22.5 | 0.00 | 0.00 | 0.00 | 1 | 1012.2 |